<?xml version="1.0" encoding="UTF-8" standalone="no" ?>
<gpx xmlns="http://www.topografix.com/GPX/1/1" xmlns:xsi="http://www.w3.org/2001/XMLSchema-instance" xsi:schemaLocation="http://www.topografix.com/GPX/1/1 http://www.topografix.com/GPX/1/1/gpx.xsd" version="1.1" creator="VisuGPX - https://www.visugpx.com">
  <metadata>
    <name>GR 470 Monistrol d'Allier - Le Pont d'Alleyras</name>
  </metadata>
  <trk>
    <name><![CDATA[GR470 etape 6-MNT]]></name>
    <trkseg>
      <trkpt lat="44.96836" lon="3.64326">
        <ele>608.793762</ele>
        <time>2011-04-11T20:56:48Z</time>
      </trkpt>
      <trkpt lat="44.96823" lon="3.64325">
        <ele>610.503784</ele>
        <time>2011-04-11T20:56:48Z</time>
      </trkpt>
      <trkpt lat="44.96815" lon="3.64327">
        <ele>611.781738</ele>
        <time>2011-04-11T20:56:48Z</time>
      </trkpt>
      <trkpt lat="44.96802" lon="3.6433">
        <ele>613.674622</ele>
        <time>2011-04-11T20:56:48Z</time>
      </trkpt>
      <trkpt lat="44.96794" lon="3.64321">
        <ele>615.397644</ele>
        <time>2011-04-11T20:56:48Z</time>
      </trkpt>
      <trkpt lat="44.9679" lon="3.6431">
        <ele>616.510437</ele>
        <time>2011-04-11T20:56:48Z</time>
      </trkpt>
      <trkpt lat="44.96784" lon="3.64309">
        <ele>617.414001</ele>
        <time>2011-04-11T20:56:48Z</time>
      </trkpt>
      <trkpt lat="44.96778" lon="3.64312">
        <ele>618.369751</ele>
        <time>2011-04-11T20:56:48Z</time>
      </trkpt>
      <trkpt lat="44.96773" lon="3.64324">
        <ele>618.565857</ele>
        <time>2011-04-11T20:56:48Z</time>
      </trkpt>
      <trkpt lat="44.96765" lon="3.64329">
        <ele>619.486877</ele>
        <time>2011-04-11T20:56:48Z</time>
      </trkpt>
      <trkpt lat="44.96755" lon="3.64341">
        <ele>620.653137</ele>
        <time>2011-04-11T20:56:48Z</time>
      </trkpt>
      <trkpt lat="44.96754" lon="3.64352">
        <ele>620.654297</ele>
        <time>2011-04-11T20:56:48Z</time>
      </trkpt>
      <trkpt lat="44.96757" lon="3.64375">
        <ele>621.331848</ele>
        <time>2011-04-11T20:56:48Z</time>
      </trkpt>
      <trkpt lat="44.96757" lon="3.64388">
        <ele>622.405945</ele>
        <time>2011-04-11T20:56:48Z</time>
      </trkpt>
      <trkpt lat="44.96757" lon="3.64422">
        <ele>625.536682</ele>
        <time>2012-01-30T11:52:24Z</time>
      </trkpt>
      <trkpt lat="44.9675" lon="3.64444">
        <ele>627.97052</ele>
        <time>2012-01-30T11:52:24Z</time>
      </trkpt>
      <trkpt lat="44.96737" lon="3.64456">
        <ele>632.064941</ele>
        <time>2012-01-30T11:52:24Z</time>
      </trkpt>
      <trkpt lat="44.96724" lon="3.6446">
        <ele>635.595032</ele>
        <time>2012-01-30T11:52:24Z</time>
      </trkpt>
      <trkpt lat="44.96715" lon="3.64431">
        <ele>634.096191</ele>
        <time>2012-01-30T11:52:24Z</time>
      </trkpt>
      <trkpt lat="44.96708" lon="3.6441">
        <ele>632.465881</ele>
        <time>2012-01-30T11:52:24Z</time>
      </trkpt>
      <trkpt lat="44.96705" lon="3.64406">
        <ele>632.523254</ele>
        <time>2012-01-30T11:52:24Z</time>
      </trkpt>
      <trkpt lat="44.96692" lon="3.64376">
        <ele>630.333618</ele>
        <time>2012-01-30T11:52:24Z</time>
      </trkpt>
      <trkpt lat="44.96682" lon="3.64376">
        <ele>632.242676</ele>
        <time>2012-01-30T11:52:24Z</time>
      </trkpt>
      <trkpt lat="44.96672" lon="3.6439">
        <ele>636.438904</ele>
        <time>2012-01-30T11:52:24Z</time>
      </trkpt>
      <trkpt lat="44.96675" lon="3.64404">
        <ele>637.556824</ele>
        <time>2012-01-30T11:52:24Z</time>
      </trkpt>
      <trkpt lat="44.96685" lon="3.64438">
        <ele>639.741211</ele>
        <time>2012-01-30T11:52:24Z</time>
      </trkpt>
      <trkpt lat="44.96697" lon="3.64471">
        <ele>642.738464</ele>
        <time>2012-01-30T11:52:24Z</time>
      </trkpt>
      <trkpt lat="44.96704" lon="3.64506">
        <ele>642.430481</ele>
        <time>2012-01-30T11:52:24Z</time>
      </trkpt>
      <trkpt lat="44.96701" lon="3.6453">
        <ele>642.618286</ele>
        <time>2012-01-30T11:52:24Z</time>
      </trkpt>
      <trkpt lat="44.96689" lon="3.64564">
        <ele>645.512634</ele>
        <time>2012-01-30T11:52:24Z</time>
      </trkpt>
      <trkpt lat="44.9668" lon="3.64583">
        <ele>646.774963</ele>
        <time>2012-01-30T11:52:24Z</time>
      </trkpt>
      <trkpt lat="44.96658" lon="3.64602">
        <ele>650.591003</ele>
        <time>2012-01-30T11:52:24Z</time>
      </trkpt>
      <trkpt lat="44.96641" lon="3.64612">
        <ele>653.670959</ele>
        <time>2012-01-30T11:52:24Z</time>
      </trkpt>
      <trkpt lat="44.96626" lon="3.6461">
        <ele>658.103882</ele>
        <time>2012-01-30T11:52:24Z</time>
      </trkpt>
      <trkpt lat="44.96615" lon="3.64617">
        <ele>657.379578</ele>
        <time>2012-01-30T11:52:24Z</time>
      </trkpt>
      <trkpt lat="44.96608" lon="3.64623">
        <ele>656.601929</ele>
        <time>2012-01-30T11:52:24Z</time>
      </trkpt>
      <trkpt lat="44.96605" lon="3.64619">
        <ele>659.077881</ele>
        <time>2012-01-30T11:52:24Z</time>
      </trkpt>
      <trkpt lat="44.9661" lon="3.64606">
        <ele>662.59436</ele>
        <time>2012-01-30T11:52:24Z</time>
      </trkpt>
      <trkpt lat="44.96612" lon="3.64598">
        <ele>663.555054</ele>
        <time>2012-01-30T11:52:24Z</time>
      </trkpt>
      <trkpt lat="44.96617" lon="3.64589">
        <ele>663.664368</ele>
        <time>2012-01-30T11:52:24Z</time>
      </trkpt>
      <trkpt lat="44.96626" lon="3.64584">
        <ele>662.448975</ele>
        <time>2012-01-30T11:52:24Z</time>
      </trkpt>
      <trkpt lat="44.96629" lon="3.64576">
        <ele>662.880493</ele>
        <time>2012-01-30T11:52:24Z</time>
      </trkpt>
      <trkpt lat="44.96627" lon="3.6457">
        <ele>664.457947</ele>
        <time>2012-01-30T11:52:24Z</time>
      </trkpt>
      <trkpt lat="44.96622" lon="3.64567">
        <ele>666.241577</ele>
        <time>2012-01-30T11:52:24Z</time>
      </trkpt>
      <trkpt lat="44.9662" lon="3.64562">
        <ele>667.440857</ele>
        <time>2012-01-30T11:52:24Z</time>
      </trkpt>
      <trkpt lat="44.96622" lon="3.64551">
        <ele>668.795776</ele>
        <time>2012-01-30T11:52:24Z</time>
      </trkpt>
      <trkpt lat="44.96618" lon="3.64548">
        <ele>670.552185</ele>
        <time>2012-01-30T11:52:24Z</time>
      </trkpt>
      <trkpt lat="44.96608" lon="3.64554">
        <ele>671.998535</ele>
        <time>2012-01-30T11:52:24Z</time>
      </trkpt>
      <trkpt lat="44.96593" lon="3.64559">
        <ele>674.947998</ele>
        <time>2012-01-30T11:52:24Z</time>
      </trkpt>
      <trkpt lat="44.96585" lon="3.64568">
        <ele>676.357422</ele>
        <time>2012-01-30T11:52:24Z</time>
      </trkpt>
      <trkpt lat="44.96571" lon="3.64591">
        <ele>677.66333</ele>
        <time>2012-01-30T11:52:24Z</time>
      </trkpt>
      <trkpt lat="44.96557" lon="3.64607">
        <ele>680.668945</ele>
        <time>2012-01-30T11:52:24Z</time>
      </trkpt>
      <trkpt lat="44.96545" lon="3.64615">
        <ele>681.772095</ele>
        <time>2012-01-30T11:52:24Z</time>
      </trkpt>
      <trkpt lat="44.96528" lon="3.64626">
        <ele>678.907532</ele>
        <time>2012-01-30T11:52:24Z</time>
      </trkpt>
      <trkpt lat="44.9652" lon="3.64626">
        <ele>679.593994</ele>
        <time>2012-01-30T11:52:24Z</time>
      </trkpt>
      <trkpt lat="44.96514" lon="3.64619">
        <ele>682.33667</ele>
        <time>2012-01-30T11:52:24Z</time>
      </trkpt>
      <trkpt lat="44.96512" lon="3.64613">
        <ele>684.088013</ele>
        <time>2012-01-30T11:52:24Z</time>
      </trkpt>
      <trkpt lat="44.96516" lon="3.64613">
        <ele>684.049927</ele>
        <time>2012-01-30T11:52:24Z</time>
      </trkpt>
      <trkpt lat="44.96519" lon="3.64615">
        <ele>683.00531</ele>
        <time>2012-01-30T11:52:24Z</time>
      </trkpt>
      <trkpt lat="44.96519" lon="3.64615">
        <ele>683.00531</ele>
        <time>2012-01-30T11:52:24Z</time>
      </trkpt>
      <trkpt lat="44.96521" lon="3.64612">
        <ele>683.970093</ele>
        <time>2012-01-30T11:52:24Z</time>
      </trkpt>
      <trkpt lat="44.9652" lon="3.64609">
        <ele>685.037659</ele>
        <time>2012-01-30T11:52:24Z</time>
      </trkpt>
      <trkpt lat="44.96519" lon="3.64604">
        <ele>686.081238</ele>
        <time>2012-01-30T11:52:24Z</time>
      </trkpt>
      <trkpt lat="44.9652" lon="3.64603">
        <ele>686.338196</ele>
        <time>2012-01-30T11:52:24Z</time>
      </trkpt>
      <trkpt lat="44.96524" lon="3.64601">
        <ele>686.360352</ele>
        <time>2012-01-30T11:52:24Z</time>
      </trkpt>
      <trkpt lat="44.96528" lon="3.64598">
        <ele>686.718811</ele>
        <time>2012-01-30T11:52:24Z</time>
      </trkpt>
      <trkpt lat="44.9653" lon="3.64591">
        <ele>687.715576</ele>
        <time>2012-01-30T11:52:24Z</time>
      </trkpt>
      <trkpt lat="44.96534" lon="3.64582">
        <ele>688.699768</ele>
        <time>2012-01-30T11:52:24Z</time>
      </trkpt>
      <trkpt lat="44.96532" lon="3.64574">
        <ele>690.182373</ele>
        <time>2012-01-30T11:52:24Z</time>
      </trkpt>
      <trkpt lat="44.96532" lon="3.64566">
        <ele>691.518494</ele>
        <time>2012-01-30T11:52:24Z</time>
      </trkpt>
      <trkpt lat="44.96533" lon="3.6456">
        <ele>692.356506</ele>
        <time>2012-01-30T11:52:24Z</time>
      </trkpt>
      <trkpt lat="44.96534" lon="3.64552">
        <ele>693.159241</ele>
        <time>2012-01-30T11:52:24Z</time>
      </trkpt>
      <trkpt lat="44.96531" lon="3.64541">
        <ele>695.177002</ele>
        <time>2012-01-30T11:52:24Z</time>
      </trkpt>
      <trkpt lat="44.96525" lon="3.6452">
        <ele>697.609924</ele>
        <time>2012-01-30T11:52:24Z</time>
      </trkpt>
      <trkpt lat="44.96522" lon="3.64512">
        <ele>699.031372</ele>
        <time>2012-01-30T11:52:24Z</time>
      </trkpt>
      <trkpt lat="44.96514" lon="3.64501">
        <ele>702.06427</ele>
        <time>2012-01-30T11:52:24Z</time>
      </trkpt>
      <trkpt lat="44.96509" lon="3.64493">
        <ele>704.330139</ele>
        <time>2011-04-11T20:56:48Z</time>
      </trkpt>
      <trkpt lat="44.96505" lon="3.64486">
        <ele>706.392639</ele>
        <time>2011-04-11T20:56:48Z</time>
      </trkpt>
      <trkpt lat="44.96488" lon="3.64482">
        <ele>712.784363</ele>
        <time>2011-04-11T20:56:48Z</time>
      </trkpt>
      <trkpt lat="44.96482" lon="3.64474">
        <ele>714.221863</ele>
        <time>2011-04-11T20:56:48Z</time>
      </trkpt>
      <trkpt lat="44.96477" lon="3.64472">
        <ele>715.770691</ele>
        <time>2011-04-11T20:56:48Z</time>
      </trkpt>
      <trkpt lat="44.9647" lon="3.64478">
        <ele>719.149353</ele>
        <time>2011-04-11T20:56:48Z</time>
      </trkpt>
      <trkpt lat="44.96464" lon="3.64483">
        <ele>720.90802</ele>
        <time>2011-04-11T20:56:48Z</time>
      </trkpt>
      <trkpt lat="44.96458" lon="3.64485">
        <ele>722.353699</ele>
        <time>2011-04-11T20:56:48Z</time>
      </trkpt>
      <trkpt lat="44.96449" lon="3.64486">
        <ele>723.062988</ele>
        <time>2011-04-11T20:56:48Z</time>
      </trkpt>
      <trkpt lat="44.96441" lon="3.64487">
        <ele>723.815979</ele>
        <time>2011-04-11T20:56:48Z</time>
      </trkpt>
      <trkpt lat="44.96434" lon="3.64492">
        <ele>723.807312</ele>
        <time>2011-04-11T20:56:48Z</time>
      </trkpt>
      <trkpt lat="44.96427" lon="3.6449">
        <ele>724.957947</ele>
        <time>2011-04-11T20:56:48Z</time>
      </trkpt>
      <trkpt lat="44.9642" lon="3.64489">
        <ele>726.074341</ele>
        <time>2011-04-11T20:56:48Z</time>
      </trkpt>
      <trkpt lat="44.96413" lon="3.64484">
        <ele>727.915894</ele>
        <time>2011-04-11T20:56:48Z</time>
      </trkpt>
      <trkpt lat="44.96406" lon="3.64476">
        <ele>729.93219</ele>
        <time>2011-04-11T20:56:48Z</time>
      </trkpt>
      <trkpt lat="44.96398" lon="3.64472">
        <ele>731.130127</ele>
        <time>2011-04-11T20:56:48Z</time>
      </trkpt>
      <trkpt lat="44.96387" lon="3.64469">
        <ele>732.664612</ele>
        <time>2011-04-11T20:56:48Z</time>
      </trkpt>
      <trkpt lat="44.96367" lon="3.64461">
        <ele>737.234802</ele>
        <time>2011-04-11T20:56:48Z</time>
      </trkpt>
      <trkpt lat="44.96344" lon="3.64468">
        <ele>741.562622</ele>
        <time>2011-04-11T20:56:48Z</time>
      </trkpt>
      <trkpt lat="44.96313" lon="3.64479">
        <ele>745.754211</ele>
        <time>2011-04-11T20:56:48Z</time>
      </trkpt>
      <trkpt lat="44.96284" lon="3.64481">
        <ele>750.829468</ele>
        <time>2011-04-11T20:56:48Z</time>
      </trkpt>
      <trkpt lat="44.96274" lon="3.6447">
        <ele>755.871155</ele>
        <time>2011-04-11T20:56:48Z</time>
      </trkpt>
      <trkpt lat="44.96257" lon="3.64456">
        <ele>763.355347</ele>
        <time>2011-04-11T20:56:48Z</time>
      </trkpt>
      <trkpt lat="44.96243" lon="3.64449">
        <ele>768.558411</ele>
        <time>2011-04-11T20:56:48Z</time>
      </trkpt>
      <trkpt lat="44.96226" lon="3.64452">
        <ele>770.297485</ele>
        <time>2011-04-11T20:56:48Z</time>
      </trkpt>
      <trkpt lat="44.96213" lon="3.64448">
        <ele>775.118774</ele>
        <time>2011-04-11T20:56:48Z</time>
      </trkpt>
      <trkpt lat="44.9619" lon="3.6446">
        <ele>774.402527</ele>
        <time>2011-04-11T20:56:48Z</time>
      </trkpt>
      <trkpt lat="44.96172" lon="3.64472">
        <ele>773.564087</ele>
        <time>2011-04-11T20:56:48Z</time>
      </trkpt>
      <trkpt lat="44.96158" lon="3.64476">
        <ele>775.376282</ele>
        <time>2011-04-11T20:56:48Z</time>
      </trkpt>
      <trkpt lat="44.96146" lon="3.64473">
        <ele>779.535034</ele>
        <time>2011-04-11T20:56:48Z</time>
      </trkpt>
      <trkpt lat="44.96137" lon="3.64467">
        <ele>782.34021</ele>
        <time>2011-04-11T20:56:48Z</time>
      </trkpt>
      <trkpt lat="44.96123" lon="3.64466">
        <ele>783.418518</ele>
        <time>2011-04-11T20:56:48Z</time>
      </trkpt>
      <trkpt lat="44.96093" lon="3.64461">
        <ele>786.125488</ele>
        <time>2011-04-11T20:56:48Z</time>
      </trkpt>
      <trkpt lat="44.96083" lon="3.6445">
        <ele>790.307739</ele>
        <time>2011-04-11T20:56:48Z</time>
      </trkpt>
      <trkpt lat="44.96077" lon="3.64438">
        <ele>794.879211</ele>
        <time>2011-04-11T20:56:48Z</time>
      </trkpt>
      <trkpt lat="44.96067" lon="3.64428">
        <ele>798.858948</ele>
        <time>2011-04-11T20:56:48Z</time>
      </trkpt>
      <trkpt lat="44.96057" lon="3.64427">
        <ele>798.953186</ele>
        <time>2011-04-11T20:56:48Z</time>
      </trkpt>
      <trkpt lat="44.96038" lon="3.64415">
        <ele>805.326904</ele>
        <time>2011-04-11T20:56:48Z</time>
      </trkpt>
      <trkpt lat="44.96026" lon="3.64417">
        <ele>805.093323</ele>
        <time>2011-04-11T20:56:48Z</time>
      </trkpt>
      <trkpt lat="44.9601" lon="3.64414">
        <ele>807.782654</ele>
        <time>2011-04-11T20:56:48Z</time>
      </trkpt>
      <trkpt lat="44.95997" lon="3.64407">
        <ele>811.924072</ele>
        <time>2011-04-11T20:56:48Z</time>
      </trkpt>
      <trkpt lat="44.95977" lon="3.64407">
        <ele>814.140442</ele>
        <time>2011-04-11T20:56:48Z</time>
      </trkpt>
      <trkpt lat="44.9596" lon="3.64405">
        <ele>817.357483</ele>
        <time>2011-04-11T20:56:48Z</time>
      </trkpt>
      <trkpt lat="44.95948" lon="3.6441">
        <ele>817.44458</ele>
        <time>2011-04-11T20:56:48Z</time>
      </trkpt>
      <trkpt lat="44.95931" lon="3.64413">
        <ele>820.49054</ele>
        <time>2011-04-11T20:56:48Z</time>
      </trkpt>
      <trkpt lat="44.95921" lon="3.64423">
        <ele>820.228394</ele>
        <time>2011-04-11T20:56:48Z</time>
      </trkpt>
      <trkpt lat="44.95915" lon="3.64438">
        <ele>818.805664</ele>
        <time>2011-04-11T20:56:48Z</time>
      </trkpt>
      <trkpt lat="44.95915" lon="3.64451">
        <ele>815.879333</ele>
        <time>2011-04-11T20:56:48Z</time>
      </trkpt>
      <trkpt lat="44.95911" lon="3.64467">
        <ele>813.69397</ele>
        <time>2011-04-11T20:56:48Z</time>
      </trkpt>
      <trkpt lat="44.95902" lon="3.64487">
        <ele>815.617004</ele>
        <time>2011-04-11T20:56:48Z</time>
      </trkpt>
      <trkpt lat="44.95896" lon="3.64507">
        <ele>816.177856</ele>
        <time>2011-04-11T20:56:48Z</time>
      </trkpt>
      <trkpt lat="44.95882" lon="3.64525">
        <ele>821.114136</ele>
        <time>2011-04-11T20:56:48Z</time>
      </trkpt>
      <trkpt lat="44.95873" lon="3.64547">
        <ele>821.85791</ele>
        <time>2011-04-11T20:56:48Z</time>
      </trkpt>
      <trkpt lat="44.95829" lon="3.64587">
        <ele>822.264648</ele>
        <time>2011-04-11T20:56:48Z</time>
      </trkpt>
      <trkpt lat="44.95788" lon="3.64605">
        <ele>816.395813</ele>
        <time>2011-04-11T20:56:48Z</time>
      </trkpt>
      <trkpt lat="44.95773" lon="3.64603">
        <ele>817.338379</ele>
        <time>2011-04-11T20:56:48Z</time>
      </trkpt>
      <trkpt lat="44.95759" lon="3.64611">
        <ele>814.98822</ele>
        <time>2011-04-11T20:56:48Z</time>
      </trkpt>
      <trkpt lat="44.95738" lon="3.64617">
        <ele>813.702209</ele>
        <time>2011-04-11T20:56:48Z</time>
      </trkpt>
      <trkpt lat="44.95718" lon="3.64642">
        <ele>811.75238</ele>
        <time>2011-04-11T20:56:48Z</time>
      </trkpt>
      <trkpt lat="44.95704" lon="3.64656">
        <ele>812.955139</ele>
        <time>2011-04-11T20:56:48Z</time>
      </trkpt>
      <trkpt lat="44.95694" lon="3.64679">
        <ele>810.901001</ele>
        <time>2011-04-11T20:56:48Z</time>
      </trkpt>
      <trkpt lat="44.95694" lon="3.64679">
        <ele>810.901001</ele>
        <time>2011-04-11T20:56:48Z</time>
      </trkpt>
      <trkpt lat="44.95674" lon="3.64707">
        <ele>806.895813</ele>
        <time>2011-04-11T20:56:48Z</time>
      </trkpt>
      <trkpt lat="44.95657" lon="3.64719">
        <ele>805.581421</ele>
        <time>2011-04-11T20:56:48Z</time>
      </trkpt>
      <trkpt lat="44.95641" lon="3.64736">
        <ele>801.015625</ele>
        <time>2011-04-11T20:56:48Z</time>
      </trkpt>
      <trkpt lat="44.9561" lon="3.6474">
        <ele>798.379822</ele>
        <time>2011-04-11T20:56:48Z</time>
      </trkpt>
      <trkpt lat="44.95557" lon="3.64745">
        <ele>793.085083</ele>
        <time>2011-04-11T20:56:48Z</time>
      </trkpt>
      <trkpt lat="44.95527" lon="3.64734">
        <ele>803.152039</ele>
        <time>2011-04-11T20:56:48Z</time>
      </trkpt>
      <trkpt lat="44.95515" lon="3.6475">
        <ele>799.16272</ele>
        <time>2011-04-11T20:56:48Z</time>
      </trkpt>
      <trkpt lat="44.95509" lon="3.64778">
        <ele>790.687561</ele>
        <time>2011-04-11T20:56:48Z</time>
      </trkpt>
      <trkpt lat="44.95473" lon="3.648">
        <ele>790.659485</ele>
        <time>2011-04-11T20:56:48Z</time>
      </trkpt>
      <trkpt lat="44.95456" lon="3.64814">
        <ele>787.634583</ele>
        <time>2011-04-11T20:56:48Z</time>
      </trkpt>
      <trkpt lat="44.95428" lon="3.64797">
        <ele>795.792236</ele>
        <time>2011-04-11T20:56:48Z</time>
      </trkpt>
      <trkpt lat="44.95407" lon="3.64786">
        <ele>800.661865</ele>
        <time>2011-04-11T20:56:48Z</time>
      </trkpt>
      <trkpt lat="44.9539" lon="3.64781">
        <ele>803.086426</ele>
        <time>2011-04-11T20:56:48Z</time>
      </trkpt>
      <trkpt lat="44.95374" lon="3.64788">
        <ele>802.175354</ele>
        <time>2011-04-11T20:56:48Z</time>
      </trkpt>
      <trkpt lat="44.95368" lon="3.64809">
        <ele>797.96637</ele>
        <time>2011-04-11T20:56:48Z</time>
      </trkpt>
      <trkpt lat="44.95364" lon="3.64824">
        <ele>794.520569</ele>
        <time>2011-04-11T20:56:48Z</time>
      </trkpt>
      <trkpt lat="44.95338" lon="3.64849">
        <ele>791.135254</ele>
        <time>2011-04-11T20:56:48Z</time>
      </trkpt>
      <trkpt lat="44.95295" lon="3.64859">
        <ele>790.844299</ele>
        <time>2011-04-11T20:56:48Z</time>
      </trkpt>
      <trkpt lat="44.95273" lon="3.64861">
        <ele>791.362732</ele>
        <time>2011-04-11T20:56:48Z</time>
      </trkpt>
      <trkpt lat="44.95239" lon="3.64878">
        <ele>785.462952</ele>
        <time>2011-04-11T20:56:48Z</time>
      </trkpt>
      <trkpt lat="44.95198" lon="3.64901">
        <ele>780.182739</ele>
        <time>2011-04-11T20:56:48Z</time>
      </trkpt>
      <trkpt lat="44.9517" lon="3.64914">
        <ele>777.798584</ele>
        <time>2011-04-11T20:56:48Z</time>
      </trkpt>
      <trkpt lat="44.95132" lon="3.64928">
        <ele>776.868774</ele>
        <time>2011-04-11T20:56:48Z</time>
      </trkpt>
      <trkpt lat="44.95115" lon="3.64946">
        <ele>770.10376</ele>
        <time>2011-04-11T20:56:48Z</time>
      </trkpt>
      <trkpt lat="44.95099" lon="3.64969">
        <ele>762.025879</ele>
        <time>2011-04-11T20:56:48Z</time>
      </trkpt>
      <trkpt lat="44.95093" lon="3.64979">
        <ele>758.513428</ele>
        <time>2011-04-11T20:56:48Z</time>
      </trkpt>
      <trkpt lat="44.95071" lon="3.65">
        <ele>751.644897</ele>
        <time>2011-04-11T20:56:48Z</time>
      </trkpt>
      <trkpt lat="44.95052" lon="3.65015">
        <ele>746.476807</ele>
        <time>2011-04-11T20:56:48Z</time>
      </trkpt>
      <trkpt lat="44.95015" lon="3.65048">
        <ele>737.969788</ele>
        <time>2011-04-11T20:56:48Z</time>
      </trkpt>
      <trkpt lat="44.94984" lon="3.65072">
        <ele>733.818176</ele>
        <time>2011-04-11T20:56:48Z</time>
      </trkpt>
      <trkpt lat="44.9496" lon="3.6508">
        <ele>733.900818</ele>
        <time>2011-04-11T20:56:48Z</time>
      </trkpt>
      <trkpt lat="44.94942" lon="3.65082">
        <ele>735.676819</ele>
        <time>2011-04-11T20:56:48Z</time>
      </trkpt>
      <trkpt lat="44.94908" lon="3.65097">
        <ele>735.687317</ele>
        <time>2011-04-11T20:56:48Z</time>
      </trkpt>
      <trkpt lat="44.94879" lon="3.65101">
        <ele>737.517944</ele>
        <time>2011-04-11T20:56:48Z</time>
      </trkpt>
      <trkpt lat="44.9486" lon="3.65107">
        <ele>737.858521</ele>
        <time>2011-04-11T20:56:48Z</time>
      </trkpt>
      <trkpt lat="44.94849" lon="3.65114">
        <ele>737.275818</ele>
        <time>2011-04-11T20:56:48Z</time>
      </trkpt>
      <trkpt lat="44.94845" lon="3.65122">
        <ele>735.164185</ele>
        <time>2011-04-11T20:56:48Z</time>
      </trkpt>
      <trkpt lat="44.949" lon="3.6515">
        <ele>727.505188</ele>
        <time>2011-04-11T20:56:48Z</time>
      </trkpt>
      <trkpt lat="44.9494" lon="3.65169">
        <ele>732.683655</ele>
        <time>2011-04-11T20:56:48Z</time>
      </trkpt>
      <trkpt lat="44.94967" lon="3.65169">
        <ele>732.713257</ele>
        <time>2011-04-11T20:56:48Z</time>
      </trkpt>
      <trkpt lat="44.94985" lon="3.65162">
        <ele>730.223206</ele>
        <time>2011-04-11T20:56:48Z</time>
      </trkpt>
      <trkpt lat="44.95008" lon="3.65167">
        <ele>732.085815</ele>
        <time>2011-04-11T20:56:48Z</time>
      </trkpt>
      <trkpt lat="44.95038" lon="3.65166">
        <ele>730.696411</ele>
        <time>2011-04-11T20:56:48Z</time>
      </trkpt>
      <trkpt lat="44.95057" lon="3.65157">
        <ele>726.924988</ele>
        <time>2011-04-11T20:56:48Z</time>
      </trkpt>
      <trkpt lat="44.95087" lon="3.65168">
        <ele>728.498169</ele>
        <time>2011-04-11T20:56:48Z</time>
      </trkpt>
      <trkpt lat="44.95118" lon="3.65165">
        <ele>726.045532</ele>
        <time>2011-04-11T20:56:48Z</time>
      </trkpt>
      <trkpt lat="44.95132" lon="3.65171">
        <ele>727.110352</ele>
        <time>2011-04-11T20:56:48Z</time>
      </trkpt>
      <trkpt lat="44.95145" lon="3.65176">
        <ele>728.152466</ele>
        <time>2011-04-11T20:56:48Z</time>
      </trkpt>
      <trkpt lat="44.95162" lon="3.65167">
        <ele>726.427734</ele>
        <time>2011-04-11T20:56:48Z</time>
      </trkpt>
      <trkpt lat="44.95186" lon="3.6516">
        <ele>725.333008</ele>
        <time>2011-04-11T20:56:48Z</time>
      </trkpt>
      <trkpt lat="44.95202" lon="3.65162">
        <ele>726.721497</ele>
        <time>2011-04-11T20:56:48Z</time>
      </trkpt>
      <trkpt lat="44.9524" lon="3.65156">
        <ele>726.304565</ele>
        <time>2011-04-11T20:56:48Z</time>
      </trkpt>
      <trkpt lat="44.95278" lon="3.6515">
        <ele>726.008545</ele>
        <time>2011-04-11T20:56:48Z</time>
      </trkpt>
      <trkpt lat="44.95303" lon="3.65149">
        <ele>725.732422</ele>
        <time>2011-04-11T20:56:48Z</time>
      </trkpt>
      <trkpt lat="44.95326" lon="3.65156">
        <ele>728.165405</ele>
        <time>2011-04-11T20:56:48Z</time>
      </trkpt>
      <trkpt lat="44.95356" lon="3.6517">
        <ele>727.754211</ele>
        <time>2011-04-11T20:56:48Z</time>
      </trkpt>
      <trkpt lat="44.95369" lon="3.65182">
        <ele>728.64801</ele>
        <time>2011-04-11T20:56:48Z</time>
      </trkpt>
      <trkpt lat="44.95376" lon="3.65216">
        <ele>737.24823</ele>
        <time>2011-04-11T20:56:48Z</time>
      </trkpt>
      <trkpt lat="44.95385" lon="3.65233">
        <ele>738.905029</ele>
        <time>2011-04-11T20:56:48Z</time>
      </trkpt>
      <trkpt lat="44.95398" lon="3.65228">
        <ele>734.559021</ele>
        <time>2011-04-11T20:56:48Z</time>
      </trkpt>
      <trkpt lat="44.95448" lon="3.65207">
        <ele>721.98999</ele>
        <time>2011-04-11T20:56:48Z</time>
      </trkpt>
      <trkpt lat="44.95463" lon="3.65206">
        <ele>720.118103</ele>
        <time>2011-04-11T20:56:48Z</time>
      </trkpt>
      <trkpt lat="44.95566" lon="3.65245">
        <ele>725.180298</ele>
        <time>2011-04-11T20:56:48Z</time>
      </trkpt>
      <trkpt lat="44.95582" lon="3.6526">
        <ele>727.976501</ele>
        <time>2011-04-11T20:56:48Z</time>
      </trkpt>
      <trkpt lat="44.95602" lon="3.65288">
        <ele>735.660767</ele>
        <time>2011-04-11T20:56:48Z</time>
      </trkpt>
      <trkpt lat="44.95649" lon="3.65266">
        <ele>729.148987</ele>
        <time>2011-04-11T20:56:48Z</time>
      </trkpt>
      <trkpt lat="44.95698" lon="3.65249">
        <ele>733.386597</ele>
        <time>2011-04-11T20:56:48Z</time>
      </trkpt>
      <trkpt lat="44.95739" lon="3.65236">
        <ele>736.441345</ele>
        <time>2011-04-11T20:56:48Z</time>
      </trkpt>
      <trkpt lat="44.9576" lon="3.65237">
        <ele>740.207275</ele>
        <time>2011-04-11T20:56:48Z</time>
      </trkpt>
      <trkpt lat="44.95787" lon="3.6524">
        <ele>745.316284</ele>
        <time>2011-04-11T20:56:48Z</time>
      </trkpt>
      <trkpt lat="44.95851" lon="3.6522">
        <ele>744.679993</ele>
        <time>2011-04-11T20:56:48Z</time>
      </trkpt>
      <trkpt lat="44.95917" lon="3.6522">
        <ele>752.388794</ele>
        <time>2011-04-11T20:56:48Z</time>
      </trkpt>
      <trkpt lat="44.95979" lon="3.65207">
        <ele>750.357483</ele>
        <time>2011-04-11T20:56:48Z</time>
      </trkpt>
      <trkpt lat="44.96028" lon="3.65196">
        <ele>746.197021</ele>
        <time>2011-04-11T20:56:48Z</time>
      </trkpt>
      <trkpt lat="44.96069" lon="3.65198">
        <ele>747.29248</ele>
        <time>2011-04-11T20:56:48Z</time>
      </trkpt>
      <trkpt lat="44.96104" lon="3.6521">
        <ele>751.494629</ele>
        <time>2011-04-11T20:56:48Z</time>
      </trkpt>
      <trkpt lat="44.9614" lon="3.65252">
        <ele>759.187927</ele>
        <time>2011-04-11T20:56:48Z</time>
      </trkpt>
      <trkpt lat="44.96169" lon="3.65256">
        <ele>756.98999</ele>
        <time>2011-04-11T20:56:48Z</time>
      </trkpt>
      <trkpt lat="44.96186" lon="3.65272">
        <ele>756.861206</ele>
        <time>2011-04-11T20:56:48Z</time>
      </trkpt>
      <trkpt lat="44.96203" lon="3.6531">
        <ele>757.935669</ele>
        <time>2011-04-11T20:56:48Z</time>
      </trkpt>
      <trkpt lat="44.96225" lon="3.65387">
        <ele>760.368103</ele>
        <time>2011-04-11T20:56:48Z</time>
      </trkpt>
      <trkpt lat="44.96257" lon="3.65449">
        <ele>763.331177</ele>
        <time>2011-04-11T20:56:48Z</time>
      </trkpt>
      <trkpt lat="44.96277" lon="3.65491">
        <ele>767.919128</ele>
        <time>2011-04-11T20:56:48Z</time>
      </trkpt>
      <trkpt lat="44.96301" lon="3.65523">
        <ele>771.075317</ele>
        <time>2011-04-11T20:56:48Z</time>
      </trkpt>
      <trkpt lat="44.96355" lon="3.65596">
        <ele>772.124146</ele>
        <time>2011-04-11T20:56:48Z</time>
      </trkpt>
      <trkpt lat="44.96342" lon="3.65639">
        <ele>772.103455</ele>
        <time>2011-04-11T20:56:48Z</time>
      </trkpt>
      <trkpt lat="44.96338" lon="3.65668">
        <ele>771.000122</ele>
        <time>2011-04-11T20:56:48Z</time>
      </trkpt>
      <trkpt lat="44.96303" lon="3.65754">
        <ele>768.026245</ele>
        <time>2011-04-11T20:56:48Z</time>
      </trkpt>
      <trkpt lat="44.96265" lon="3.65832">
        <ele>765.519287</ele>
        <time>2011-09-04T11:34:49Z</time>
      </trkpt>
      <trkpt lat="44.96231" lon="3.65917">
        <ele>762.799988</ele>
        <time>2012-01-30T11:52:24Z</time>
      </trkpt>
      <trkpt lat="44.96211" lon="3.65997">
        <ele>761.086609</ele>
        <time>2011-04-11T20:56:48Z</time>
      </trkpt>
      <trkpt lat="44.96192" lon="3.66067">
        <ele>759.993347</ele>
        <time>2011-04-11T20:56:48Z</time>
      </trkpt>
      <trkpt lat="44.96174" lon="3.66111">
        <ele>756.154358</ele>
        <time>2011-04-11T20:56:48Z</time>
      </trkpt>
      <trkpt lat="44.96153" lon="3.66126">
        <ele>756.495972</ele>
        <time>2011-09-28T14:31:00Z</time>
      </trkpt>
      <trkpt lat="44.96136" lon="3.66134">
        <ele>758.065674</ele>
        <time>2012-01-30T11:52:24Z</time>
      </trkpt>
      <trkpt lat="44.96129" lon="3.6615">
        <ele>758.94873</ele>
        <time>2011-04-11T20:56:48Z</time>
      </trkpt>
      <trkpt lat="44.96139" lon="3.66182">
        <ele>757.689819</ele>
        <time>2012-01-30T11:52:24Z</time>
      </trkpt>
      <trkpt lat="44.96163" lon="3.66195">
        <ele>755.103516</ele>
        <time>2011-04-11T20:56:48Z</time>
      </trkpt>
      <trkpt lat="44.96179" lon="3.66221">
        <ele>754.738525</ele>
        <time>2011-04-11T20:56:48Z</time>
      </trkpt>
      <trkpt lat="44.96211" lon="3.66304">
        <ele>756.528809</ele>
        <time>2011-04-11T20:56:48Z</time>
      </trkpt>
      <trkpt lat="44.96231" lon="3.66366">
        <ele>758.845215</ele>
        <time>2011-04-11T20:56:48Z</time>
      </trkpt>
      <trkpt lat="44.96233" lon="3.66406">
        <ele>759.448975</ele>
        <time>2011-04-11T20:56:48Z</time>
      </trkpt>
      <trkpt lat="44.96227" lon="3.66432">
        <ele>761.048035</ele>
        <time>2011-04-11T20:56:48Z</time>
      </trkpt>
      <trkpt lat="44.9622" lon="3.66453">
        <ele>762.549561</ele>
        <time>2011-04-11T20:56:48Z</time>
      </trkpt>
      <trkpt lat="44.962" lon="3.66521">
        <ele>767.413818</ele>
        <time>2011-04-11T20:56:48Z</time>
      </trkpt>
      <trkpt lat="44.96194" lon="3.66556">
        <ele>769.87323</ele>
        <time>2011-04-11T20:56:48Z</time>
      </trkpt>
      <trkpt lat="44.96206" lon="3.66574">
        <ele>767.84491</ele>
        <time>2011-04-11T20:56:48Z</time>
      </trkpt>
      <trkpt lat="44.96232" lon="3.66565">
        <ele>765.457703</ele>
        <time>2011-04-11T20:56:48Z</time>
      </trkpt>
      <trkpt lat="44.9626" lon="3.66565">
        <ele>766.701416</ele>
        <time>2011-04-11T20:56:48Z</time>
      </trkpt>
      <trkpt lat="44.96285" lon="3.66576">
        <ele>772.901123</ele>
        <time>2011-04-11T20:56:48Z</time>
      </trkpt>
      <trkpt lat="44.96309" lon="3.66564">
        <ele>773.70874</ele>
        <time>2011-04-11T20:56:48Z</time>
      </trkpt>
      <trkpt lat="44.96326" lon="3.66556">
        <ele>774.461243</ele>
        <time>2011-04-11T20:56:48Z</time>
      </trkpt>
      <trkpt lat="44.96345" lon="3.66559">
        <ele>777.248779</ele>
        <time>2011-04-11T20:56:48Z</time>
      </trkpt>
      <trkpt lat="44.96366" lon="3.66579">
        <ele>782.760864</ele>
        <time>2011-04-11T20:56:48Z</time>
      </trkpt>
      <trkpt lat="44.9637" lon="3.66596">
        <ele>786.7099</ele>
        <time>2011-04-11T20:56:48Z</time>
      </trkpt>
      <trkpt lat="44.96377" lon="3.66604">
        <ele>789.205017</ele>
        <time>2012-01-30T11:52:24Z</time>
      </trkpt>
      <trkpt lat="44.96427" lon="3.66592">
        <ele>789.694031</ele>
        <time>2011-04-11T20:56:48Z</time>
      </trkpt>
      <trkpt lat="44.96465" lon="3.66597">
        <ele>791.113403</ele>
        <time>2011-04-11T20:56:48Z</time>
      </trkpt>
      <trkpt lat="44.9648" lon="3.66597">
        <ele>790.981262</ele>
        <time>2011-04-11T20:56:48Z</time>
      </trkpt>
      <trkpt lat="44.96502" lon="3.66612">
        <ele>792.293945</ele>
        <time>2011-04-11T20:56:48Z</time>
      </trkpt>
      <trkpt lat="44.96517" lon="3.6665">
        <ele>802.789612</ele>
        <time>2011-04-11T20:56:48Z</time>
      </trkpt>
      <trkpt lat="44.96541" lon="3.66692">
        <ele>814.653015</ele>
        <time>2011-04-11T20:56:48Z</time>
      </trkpt>
      <trkpt lat="44.96556" lon="3.66703">
        <ele>816.711853</ele>
        <time>2011-04-11T20:56:48Z</time>
      </trkpt>
      <trkpt lat="44.96584" lon="3.66714">
        <ele>815.280334</ele>
        <time>2011-04-11T20:56:48Z</time>
      </trkpt>
      <trkpt lat="44.96604" lon="3.66724">
        <ele>814.525818</ele>
        <time>2011-04-11T20:56:48Z</time>
      </trkpt>
      <trkpt lat="44.96616" lon="3.66737">
        <ele>815.439331</ele>
        <time>2011-04-11T20:56:48Z</time>
      </trkpt>
      <trkpt lat="44.96626" lon="3.66757">
        <ele>817.215881</ele>
        <time>2011-04-11T20:56:48Z</time>
      </trkpt>
      <trkpt lat="44.9664" lon="3.6682">
        <ele>819.26062</ele>
        <time>2011-04-11T20:56:48Z</time>
      </trkpt>
      <trkpt lat="44.96639" lon="3.66837">
        <ele>821.282166</ele>
        <time>2011-04-11T20:56:48Z</time>
      </trkpt>
      <trkpt lat="44.96629" lon="3.66872">
        <ele>829.650879</ele>
        <time>2011-04-11T20:56:48Z</time>
      </trkpt>
      <trkpt lat="44.96626" lon="3.66901">
        <ele>831.995728</ele>
        <time>2011-04-11T20:56:48Z</time>
      </trkpt>
      <trkpt lat="44.96639" lon="3.66938">
        <ele>821.197205</ele>
        <time>2011-04-11T20:56:48Z</time>
      </trkpt>
      <trkpt lat="44.96636" lon="3.66964">
        <ele>819.188782</ele>
        <time>2011-04-11T20:56:48Z</time>
      </trkpt>
      <trkpt lat="44.9663" lon="3.66987">
        <ele>816.753357</ele>
        <time>2011-04-11T20:56:48Z</time>
      </trkpt>
      <trkpt lat="44.9662" lon="3.67004">
        <ele>817.732239</ele>
        <time>2011-04-11T20:56:48Z</time>
      </trkpt>
      <trkpt lat="44.9661" lon="3.67013">
        <ele>820.296631</ele>
        <time>2011-04-11T20:56:48Z</time>
      </trkpt>
      <trkpt lat="44.9659" lon="3.67049">
        <ele>818.073364</ele>
        <time>2011-04-11T20:56:48Z</time>
      </trkpt>
      <trkpt lat="44.96575" lon="3.67083">
        <ele>815.195129</ele>
        <time>2011-04-11T20:56:48Z</time>
      </trkpt>
      <trkpt lat="44.9657" lon="3.67111">
        <ele>809.747009</ele>
        <time>2011-04-11T20:56:48Z</time>
      </trkpt>
      <trkpt lat="44.96549" lon="3.67147">
        <ele>808.62384</ele>
        <time>2011-04-11T20:56:48Z</time>
      </trkpt>
      <trkpt lat="44.96523" lon="3.67183">
        <ele>813.134338</ele>
        <time>2011-04-11T20:56:48Z</time>
      </trkpt>
      <trkpt lat="44.96522" lon="3.67202">
        <ele>811.021729</ele>
        <time>2011-04-11T20:56:48Z</time>
      </trkpt>
      <trkpt lat="44.96534" lon="3.67221">
        <ele>805.260803</ele>
        <time>2011-04-11T20:56:48Z</time>
      </trkpt>
      <trkpt lat="44.96547" lon="3.67222">
        <ele>798.713989</ele>
        <time>2011-04-11T20:56:48Z</time>
      </trkpt>
      <trkpt lat="44.96555" lon="3.67233">
        <ele>796.226868</ele>
        <time>2011-04-11T20:56:48Z</time>
      </trkpt>
      <trkpt lat="44.96558" lon="3.67247">
        <ele>796.805115</ele>
        <time>2011-04-11T20:56:48Z</time>
      </trkpt>
      <trkpt lat="44.96553" lon="3.67261">
        <ele>800.842224</ele>
        <time>2011-04-11T20:56:48Z</time>
      </trkpt>
      <trkpt lat="44.96524" lon="3.67357">
        <ele>791.700012</ele>
        <time>2011-04-11T20:56:48Z</time>
      </trkpt>
      <trkpt lat="44.96501" lon="3.67383">
        <ele>790.416992</ele>
        <time>2011-04-11T20:56:48Z</time>
      </trkpt>
      <trkpt lat="44.96453" lon="3.67401">
        <ele>801.541504</ele>
        <time>2011-04-11T20:56:48Z</time>
      </trkpt>
      <trkpt lat="44.96467" lon="3.67438">
        <ele>797.494202</ele>
        <time>2011-04-11T20:56:48Z</time>
      </trkpt>
      <trkpt lat="44.96479" lon="3.67481">
        <ele>798.022888</ele>
        <time>2011-04-11T20:56:48Z</time>
      </trkpt>
      <trkpt lat="44.96485" lon="3.67506">
        <ele>801.736084</ele>
        <time>2011-04-11T20:56:48Z</time>
      </trkpt>
      <trkpt lat="44.96499" lon="3.67524">
        <ele>800.007629</ele>
        <time>2011-04-11T20:56:48Z</time>
      </trkpt>
      <trkpt lat="44.96532" lon="3.67562">
        <ele>790.532776</ele>
        <time>2011-04-11T20:56:48Z</time>
      </trkpt>
      <trkpt lat="44.96563" lon="3.6759">
        <ele>783.080811</ele>
        <time>2011-04-11T20:56:48Z</time>
      </trkpt>
      <trkpt lat="44.96578" lon="3.67597">
        <ele>777.924011</ele>
        <time>2011-04-11T20:56:48Z</time>
      </trkpt>
      <trkpt lat="44.96595" lon="3.67593">
        <ele>773.08606</ele>
        <time>2011-04-11T20:56:48Z</time>
      </trkpt>
      <trkpt lat="44.96608" lon="3.676">
        <ele>768.897827</ele>
        <time>2011-04-11T20:56:48Z</time>
      </trkpt>
      <trkpt lat="44.96614" lon="3.67629">
        <ele>765.513855</ele>
        <time>2011-04-11T20:56:48Z</time>
      </trkpt>
      <trkpt lat="44.96593" lon="3.67654">
        <ele>769.590027</ele>
        <time>2011-04-11T20:56:48Z</time>
      </trkpt>
      <trkpt lat="44.96575" lon="3.67673">
        <ele>768.400024</ele>
        <time>2011-04-11T20:56:48Z</time>
      </trkpt>
      <trkpt lat="44.96562" lon="3.67697">
        <ele>765.242493</ele>
        <time>2011-04-11T20:56:48Z</time>
      </trkpt>
      <trkpt lat="44.96547" lon="3.67708">
        <ele>766.871704</ele>
        <time>2011-04-11T20:56:48Z</time>
      </trkpt>
      <trkpt lat="44.96547" lon="3.6773">
        <ele>770.755371</ele>
        <time>2011-04-11T20:56:48Z</time>
      </trkpt>
      <trkpt lat="44.96553" lon="3.67739">
        <ele>771.521729</ele>
        <time>2011-04-11T20:56:48Z</time>
      </trkpt>
      <trkpt lat="44.96563" lon="3.67743">
        <ele>769.772644</ele>
        <time>2011-04-11T20:56:48Z</time>
      </trkpt>
      <trkpt lat="44.966" lon="3.6777">
        <ele>764.820007</ele>
        <time>2011-04-11T20:56:48Z</time>
      </trkpt>
      <trkpt lat="44.96624" lon="3.67792">
        <ele>761.272888</ele>
        <time>2011-04-11T20:56:48Z</time>
      </trkpt>
      <trkpt lat="44.96647" lon="3.67826">
        <ele>760.556091</ele>
        <time>2011-04-11T20:56:48Z</time>
      </trkpt>
      <trkpt lat="44.96657" lon="3.67838">
        <ele>764.191711</ele>
        <time>2011-04-11T20:56:48Z</time>
      </trkpt>
      <trkpt lat="44.9666" lon="3.67852">
        <ele>763.362732</ele>
        <time>2011-04-11T20:56:48Z</time>
      </trkpt>
      <trkpt lat="44.96651" lon="3.6786">
        <ele>759.309387</ele>
        <time>2011-04-11T20:56:48Z</time>
      </trkpt>
      <trkpt lat="44.96642" lon="3.67869">
        <ele>756.341919</ele>
        <time>2011-04-11T20:56:48Z</time>
      </trkpt>
      <trkpt lat="44.96608" lon="3.67911">
        <ele>751.919983</ele>
        <time>2011-04-11T20:56:48Z</time>
      </trkpt>
      <trkpt lat="44.96561" lon="3.67987">
        <ele>744.027832</ele>
        <time>2011-04-11T20:56:48Z</time>
      </trkpt>
      <trkpt lat="44.96548" lon="3.68021">
        <ele>739.260132</ele>
        <time>2011-04-11T20:56:48Z</time>
      </trkpt>
      <trkpt lat="44.9653" lon="3.6806">
        <ele>738.283142</ele>
        <time>2011-04-11T20:56:48Z</time>
      </trkpt>
      <trkpt lat="44.96517" lon="3.68108">
        <ele>733.996826</ele>
        <time>2011-04-11T20:56:48Z</time>
      </trkpt>
      <trkpt lat="44.96501" lon="3.68147">
        <ele>731.70929</ele>
        <time>2011-04-11T20:56:48Z</time>
      </trkpt>
      <trkpt lat="44.96485" lon="3.68168">
        <ele>728.18219</ele>
        <time>2011-04-11T20:56:48Z</time>
      </trkpt>
      <trkpt lat="44.96475" lon="3.68165">
        <ele>728.95459</ele>
        <time>2011-04-11T20:56:48Z</time>
      </trkpt>
      <trkpt lat="44.9647" lon="3.68154">
        <ele>731.876282</ele>
        <time>2011-04-11T20:56:48Z</time>
      </trkpt>
      <trkpt lat="44.96455" lon="3.6815">
        <ele>733.535583</ele>
        <time>2011-04-11T20:56:48Z</time>
      </trkpt>
      <trkpt lat="44.96442" lon="3.68154">
        <ele>731.875732</ele>
        <time>2011-04-11T20:56:48Z</time>
      </trkpt>
      <trkpt lat="44.96425" lon="3.6815">
        <ele>732.690186</ele>
        <time>2011-04-11T20:56:48Z</time>
      </trkpt>
      <trkpt lat="44.964" lon="3.68167">
        <ele>725.57373</ele>
        <time>2011-04-11T20:56:48Z</time>
      </trkpt>
      <trkpt lat="44.96384" lon="3.68155">
        <ele>730.729126</ele>
        <time>2011-04-11T20:56:48Z</time>
      </trkpt>
      <trkpt lat="44.96363" lon="3.68148">
        <ele>735.357483</ele>
        <time>2011-04-11T20:56:48Z</time>
      </trkpt>
      <trkpt lat="44.96337" lon="3.68145">
        <ele>740.340027</ele>
        <time>2011-04-11T20:56:48Z</time>
      </trkpt>
      <trkpt lat="44.96316" lon="3.68151">
        <ele>741.231384</ele>
        <time>2011-04-11T20:56:48Z</time>
      </trkpt>
      <trkpt lat="44.96302" lon="3.68148">
        <ele>744.549866</ele>
        <time>2011-04-11T20:56:48Z</time>
      </trkpt>
      <trkpt lat="44.96288" lon="3.68153">
        <ele>745.07782</ele>
        <time>2011-04-11T20:56:48Z</time>
      </trkpt>
      <trkpt lat="44.96277" lon="3.68167">
        <ele>741.994507</ele>
        <time>2011-04-11T20:56:48Z</time>
      </trkpt>
      <trkpt lat="44.9626" lon="3.68172">
        <ele>742.60791</ele>
        <time>2011-04-11T20:56:48Z</time>
      </trkpt>
      <trkpt lat="44.96235" lon="3.68164">
        <ele>747.740601</ele>
        <time>2011-04-11T20:56:48Z</time>
      </trkpt>
      <trkpt lat="44.9622" lon="3.68157">
        <ele>751.685852</ele>
        <time>2011-04-11T20:56:48Z</time>
      </trkpt>
      <trkpt lat="44.96202" lon="3.68164">
        <ele>753.106934</ele>
        <time>2011-04-11T20:56:48Z</time>
      </trkpt>
      <trkpt lat="44.96191" lon="3.68188">
        <ele>750.411255</ele>
        <time>2011-04-11T20:56:48Z</time>
      </trkpt>
      <trkpt lat="44.96191" lon="3.68205">
        <ele>747.201965</ele>
        <time>2011-04-11T20:56:48Z</time>
      </trkpt>
      <trkpt lat="44.9619" lon="3.68214">
        <ele>745.205322</ele>
        <time>2011-04-11T20:56:48Z</time>
      </trkpt>
      <trkpt lat="44.96183" lon="3.6822">
        <ele>744.240845</ele>
        <time>2011-04-11T20:56:48Z</time>
      </trkpt>
      <trkpt lat="44.96173" lon="3.68231">
        <ele>741.970581</ele>
        <time>2011-04-11T20:56:48Z</time>
      </trkpt>
      <trkpt lat="44.9616" lon="3.68259">
        <ele>733.604126</ele>
        <time>2011-04-11T20:56:48Z</time>
      </trkpt>
      <trkpt lat="44.96151" lon="3.68258">
        <ele>735.237488</ele>
        <time>2011-04-11T20:56:48Z</time>
      </trkpt>
      <trkpt lat="44.96141" lon="3.68252">
        <ele>738.416504</ele>
        <time>2011-04-11T20:56:48Z</time>
      </trkpt>
      <trkpt lat="44.96132" lon="3.68256">
        <ele>736.448792</ele>
        <time>2011-04-11T20:56:48Z</time>
      </trkpt>
      <trkpt lat="44.9612" lon="3.68248">
        <ele>738.356445</ele>
        <time>2011-04-11T20:56:48Z</time>
      </trkpt>
      <trkpt lat="44.96112" lon="3.6823">
        <ele>744.576599</ele>
        <time>2011-04-11T20:56:48Z</time>
      </trkpt>
      <trkpt lat="44.96102" lon="3.68228">
        <ele>744.437988</ele>
        <time>2011-04-11T20:56:48Z</time>
      </trkpt>
      <trkpt lat="44.9609" lon="3.68229">
        <ele>742.721252</ele>
        <time>2011-04-11T20:56:48Z</time>
      </trkpt>
      <trkpt lat="44.96083" lon="3.6823">
        <ele>741.099976</ele>
        <time>2011-04-11T20:56:48Z</time>
      </trkpt>
      <trkpt lat="44.96076" lon="3.6823">
        <ele>740.299988</ele>
        <time>2011-04-11T20:56:48Z</time>
      </trkpt>
      <trkpt lat="44.9606" lon="3.68221">
        <ele>741.088745</ele>
        <time>2011-04-11T20:56:48Z</time>
      </trkpt>
      <trkpt lat="44.96048" lon="3.68203">
        <ele>747.207825</ele>
        <time>2011-04-11T20:56:48Z</time>
      </trkpt>
      <trkpt lat="44.96031" lon="3.68179">
        <ele>756.463257</ele>
        <time>2011-04-11T20:56:48Z</time>
      </trkpt>
      <trkpt lat="44.96004" lon="3.68184">
        <ele>756.371826</ele>
        <time>2011-04-11T20:56:48Z</time>
      </trkpt>
      <trkpt lat="44.9599" lon="3.68191">
        <ele>754.855652</ele>
        <time>2011-04-11T20:56:48Z</time>
      </trkpt>
      <trkpt lat="44.95969" lon="3.68185">
        <ele>759.792847</ele>
        <time>2011-04-11T20:56:48Z</time>
      </trkpt>
      <trkpt lat="44.95946" lon="3.68178">
        <ele>767.289978</ele>
        <time>2011-04-11T20:56:48Z</time>
      </trkpt>
      <trkpt lat="44.95896" lon="3.68206">
        <ele>771.389526</ele>
        <time>2011-04-11T20:56:48Z</time>
      </trkpt>
      <trkpt lat="44.95852" lon="3.68249">
        <ele>780.597168</ele>
        <time>2011-04-11T20:56:48Z</time>
      </trkpt>
      <trkpt lat="44.95822" lon="3.68268">
        <ele>789.792358</ele>
        <time>2011-04-11T20:56:48Z</time>
      </trkpt>
      <trkpt lat="44.95819" lon="3.68281">
        <ele>786.930237</ele>
        <time>2011-04-11T20:56:48Z</time>
      </trkpt>
      <trkpt lat="44.95807" lon="3.68304">
        <ele>785.574829</ele>
        <time>2011-04-11T20:56:48Z</time>
      </trkpt>
      <trkpt lat="44.95789" lon="3.68322">
        <ele>787.817139</ele>
        <time>2011-04-11T20:56:48Z</time>
      </trkpt>
      <trkpt lat="44.95762" lon="3.68339">
        <ele>793.313782</ele>
        <time>2011-04-11T20:56:48Z</time>
      </trkpt>
      <trkpt lat="44.95705" lon="3.68429">
        <ele>782.312927</ele>
        <time>2011-04-11T20:56:48Z</time>
      </trkpt>
      <trkpt lat="44.95673" lon="3.68481">
        <ele>777.01355</ele>
        <time>2011-04-11T20:56:48Z</time>
      </trkpt>
      <trkpt lat="44.9566" lon="3.68518">
        <ele>770.97876</ele>
        <time>2011-04-11T20:56:48Z</time>
      </trkpt>
      <trkpt lat="44.95645" lon="3.68551">
        <ele>773.492554</ele>
        <time>2011-04-11T20:56:48Z</time>
      </trkpt>
      <trkpt lat="44.95628" lon="3.68593">
        <ele>775.40509</ele>
        <time>2011-04-11T20:56:48Z</time>
      </trkpt>
      <trkpt lat="44.95623" lon="3.68618">
        <ele>776.015625</ele>
        <time>2011-04-11T20:56:48Z</time>
      </trkpt>
      <trkpt lat="44.95613" lon="3.68652">
        <ele>777.846008</ele>
        <time>2011-04-11T20:56:48Z</time>
      </trkpt>
      <trkpt lat="44.95602" lon="3.68666">
        <ele>780.653381</ele>
        <time>2011-04-11T20:56:48Z</time>
      </trkpt>
      <trkpt lat="44.95588" lon="3.6866">
        <ele>782.105896</ele>
        <time>2011-04-11T20:56:48Z</time>
      </trkpt>
      <trkpt lat="44.95582" lon="3.68641">
        <ele>783.162537</ele>
        <time>2011-04-11T20:56:48Z</time>
      </trkpt>
      <trkpt lat="44.95571" lon="3.68612">
        <ele>786.252136</ele>
        <time>2011-04-11T20:56:48Z</time>
      </trkpt>
      <trkpt lat="44.95564" lon="3.68564">
        <ele>792.450989</ele>
        <time>2011-04-11T20:56:48Z</time>
      </trkpt>
      <trkpt lat="44.95564" lon="3.68501">
        <ele>805.148865</ele>
        <time>2011-04-11T20:56:48Z</time>
      </trkpt>
      <trkpt lat="44.9559" lon="3.68427">
        <ele>820.385559</ele>
        <time>2011-04-11T20:56:48Z</time>
      </trkpt>
      <trkpt lat="44.95627" lon="3.68363">
        <ele>828.904968</ele>
        <time>2011-04-11T20:56:48Z</time>
      </trkpt>
      <trkpt lat="44.95653" lon="3.68304">
        <ele>840.240662</ele>
        <time>2011-04-11T20:56:48Z</time>
      </trkpt>
      <trkpt lat="44.95679" lon="3.68254">
        <ele>849.143127</ele>
        <time>2011-04-11T20:56:48Z</time>
      </trkpt>
      <trkpt lat="44.95693" lon="3.68212">
        <ele>858.108337</ele>
        <time>2011-04-11T20:56:48Z</time>
      </trkpt>
      <trkpt lat="44.9571" lon="3.68179">
        <ele>863.618408</ele>
        <time>2011-04-11T20:56:48Z</time>
      </trkpt>
      <trkpt lat="44.95737" lon="3.68157">
        <ele>862.392212</ele>
        <time>2011-04-11T20:56:48Z</time>
      </trkpt>
      <trkpt lat="44.95754" lon="3.68136">
        <ele>862.714111</ele>
        <time>2011-04-11T20:56:48Z</time>
      </trkpt>
      <trkpt lat="44.95762" lon="3.68111">
        <ele>865.650635</ele>
        <time>2011-04-11T20:56:48Z</time>
      </trkpt>
      <trkpt lat="44.95757" lon="3.6809">
        <ele>871.941589</ele>
        <time>2011-04-11T20:56:48Z</time>
      </trkpt>
      <trkpt lat="44.95757" lon="3.68054">
        <ele>880.261719</ele>
        <time>2011-04-11T20:56:48Z</time>
      </trkpt>
      <trkpt lat="44.95759" lon="3.68021">
        <ele>887.422913</ele>
        <time>2011-04-11T20:56:48Z</time>
      </trkpt>
      <trkpt lat="44.95758" lon="3.67993">
        <ele>891.1604</ele>
        <time>2011-04-11T20:56:48Z</time>
      </trkpt>
      <trkpt lat="44.95754" lon="3.67962">
        <ele>892.659546</ele>
        <time>2011-04-11T20:56:48Z</time>
      </trkpt>
      <trkpt lat="44.95754" lon="3.67956">
        <ele>892.784729</ele>
        <time>2011-04-11T20:56:48Z</time>
      </trkpt>
      <trkpt lat="44.95774" lon="3.6794">
        <ele>893.66156</ele>
        <time>2011-04-11T20:56:48Z</time>
      </trkpt>
      <trkpt lat="44.95802" lon="3.67898">
        <ele>895.468872</ele>
        <time>2011-04-11T20:56:48Z</time>
      </trkpt>
      <trkpt lat="44.95826" lon="3.67873">
        <ele>898.883545</ele>
        <time>2011-04-11T20:56:48Z</time>
      </trkpt>
      <trkpt lat="44.95853" lon="3.67842">
        <ele>904.347351</ele>
        <time>2011-04-11T20:56:48Z</time>
      </trkpt>
      <trkpt lat="44.9587" lon="3.67807">
        <ele>911.796936</ele>
        <time>2011-04-11T20:56:48Z</time>
      </trkpt>
      <trkpt lat="44.95874" lon="3.67782">
        <ele>913.392212</ele>
        <time>2011-04-11T20:56:48Z</time>
      </trkpt>
      <trkpt lat="44.95865" lon="3.67769">
        <ele>910.126526</ele>
        <time>2011-04-11T20:56:48Z</time>
      </trkpt>
      <trkpt lat="44.95856" lon="3.67762">
        <ele>906.707764</ele>
        <time>2011-04-15T12:48:36Z</time>
      </trkpt>
      <trkpt lat="44.95853" lon="3.67756">
        <ele>905.346863</ele>
        <time>2011-04-17T07:20:59Z</time>
      </trkpt>
      <trkpt lat="44.95857" lon="3.67747">
        <ele>906.806763</ele>
        <time>2011-04-19T02:15:25Z</time>
      </trkpt>
      <trkpt lat="44.95869" lon="3.67747">
        <ele>911.214722</ele>
        <time>2011-04-26T17:54:45Z</time>
      </trkpt>
      <trkpt lat="44.95869" lon="3.67749">
        <ele>911.228394</ele>
        <time>2011-04-27T07:22:38Z</time>
      </trkpt>
      <trkpt lat="44.95888" lon="3.67742">
        <ele>916.510376</ele>
        <time>2011-05-08T06:36:45Z</time>
      </trkpt>
      <trkpt lat="44.9591" lon="3.6774">
        <ele>918.848816</ele>
        <time>2011-05-20T22:18:59Z</time>
      </trkpt>
      <trkpt lat="44.95927" lon="3.67715">
        <ele>921.396179</ele>
        <time>2011-06-04T02:19:22Z</time>
      </trkpt>
      <trkpt lat="44.95948" lon="3.67696">
        <ele>919.304016</ele>
        <time>2011-06-19T12:03:14Z</time>
      </trkpt>
      <trkpt lat="44.95958" lon="3.67683">
        <ele>919.014038</ele>
        <time>2011-06-26T13:18:55Z</time>
      </trkpt>
      <trkpt lat="44.95971" lon="3.6766">
        <ele>920.394043</ele>
        <time>2011-07-07T11:05:04Z</time>
      </trkpt>
      <trkpt lat="44.95999" lon="3.67632">
        <ele>922.143982</ele>
        <time>2011-07-27T09:03:04Z</time>
      </trkpt>
      <trkpt lat="44.96018" lon="3.67616">
        <ele>922.985046</ele>
        <time>2011-08-19T00:50:25Z</time>
      </trkpt>
      <trkpt lat="44.96062" lon="3.67589">
        <ele>923.35022</ele>
        <time>2011-09-03T23:54:27Z</time>
      </trkpt>
      <trkpt lat="44.96078" lon="3.67575">
        <ele>924.040344</ele>
        <time>2011-09-13T13:07:00Z</time>
      </trkpt>
      <trkpt lat="44.96091" lon="3.67569">
        <ele>923.583557</ele>
        <time>2011-09-20T21:58:43Z</time>
      </trkpt>
      <trkpt lat="44.9613" lon="3.67542">
        <ele>922.661072</ele>
        <time>2011-10-12T20:09:27Z</time>
      </trkpt>
      <trkpt lat="44.96158" lon="3.67509">
        <ele>921.995361</ele>
        <time>2011-10-30T19:43:10Z</time>
      </trkpt>
      <trkpt lat="44.96178" lon="3.67483">
        <ele>918.249084</ele>
        <time>2011-11-12T15:36:24Z</time>
      </trkpt>
      <trkpt lat="44.96183" lon="3.67459">
        <ele>918.477051</ele>
        <time>2011-11-22T11:24:15Z</time>
      </trkpt>
      <trkpt lat="44.96189" lon="3.67438">
        <ele>916.324036</ele>
        <time>2011-12-03T04:40:56Z</time>
      </trkpt>
      <trkpt lat="44.96189" lon="3.67424">
        <ele>914.319824</ele>
        <time>2011-12-10T14:49:20Z</time>
      </trkpt>
      <trkpt lat="44.96189" lon="3.67404">
        <ele>911.508789</ele>
        <time>2011-12-15T18:26:03Z</time>
      </trkpt>
      <trkpt lat="44.96193" lon="3.67393">
        <ele>910.167664</ele>
        <time>2011-12-17T22:06:34Z</time>
      </trkpt>
      <trkpt lat="44.96205" lon="3.67381">
        <ele>907.93103</ele>
        <time>2011-12-21T10:53:54Z</time>
      </trkpt>
      <trkpt lat="44.96214" lon="3.67377">
        <ele>904.882813</ele>
        <time>2011-12-24T04:44:15Z</time>
      </trkpt>
      <trkpt lat="44.96219" lon="3.67369">
        <ele>902.925476</ele>
        <time>2011-12-26T15:33:41Z</time>
      </trkpt>
      <trkpt lat="44.9622" lon="3.67355">
        <ele>901.57782</ele>
        <time>2011-12-29T17:58:27Z</time>
      </trkpt>
      <trkpt lat="44.96212" lon="3.67325">
        <ele>900.816162</ele>
        <time>2012-01-08T00:25:24Z</time>
      </trkpt>
      <trkpt lat="44.96202" lon="3.67298">
        <ele>904.118286</ele>
        <time>2012-01-16T14:33:31Z</time>
      </trkpt>
      <trkpt lat="44.96196" lon="3.67272">
        <ele>905.410828</ele>
        <time>2012-01-21T15:57:07Z</time>
      </trkpt>
      <trkpt lat="44.96193" lon="3.67243">
        <ele>907.374329</ele>
        <time>2012-01-30T11:52:24Z</time>
      </trkpt>
      <trkpt lat="44.96194" lon="3.67225">
        <ele>909.058716</ele>
        <time>2012-01-30T11:52:24Z</time>
      </trkpt>
      <trkpt lat="44.96192" lon="3.67209">
        <ele>910.161926</ele>
        <time>2012-01-30T11:52:24Z</time>
      </trkpt>
      <trkpt lat="44.96184" lon="3.67192">
        <ele>909.135986</ele>
        <time>2012-01-30T11:52:24Z</time>
      </trkpt>
      <trkpt lat="44.96176" lon="3.67175">
        <ele>906.373169</ele>
        <time>2012-01-23T02:32:34Z</time>
      </trkpt>
      <trkpt lat="44.96165" lon="3.6719">
        <ele>904.810913</ele>
        <time>2012-01-14T21:56:47Z</time>
      </trkpt>
      <trkpt lat="44.9615" lon="3.67198">
        <ele>902.27124</ele>
        <time>2012-01-07T16:25:47Z</time>
      </trkpt>
      <trkpt lat="44.96115" lon="3.67202">
        <ele>894.944153</ele>
        <time>2011-12-20T11:10:04Z</time>
      </trkpt>
      <trkpt lat="44.96067" lon="3.67209">
        <ele>887.987061</ele>
        <time>2011-11-27T14:16:48Z</time>
      </trkpt>
      <trkpt lat="44.96046" lon="3.67208">
        <ele>887.615967</ele>
        <time>2011-11-17T07:52:56Z</time>
      </trkpt>
      <trkpt lat="44.96025" lon="3.67192">
        <ele>884.748535</ele>
        <time>2011-11-05T12:20:10Z</time>
      </trkpt>
      <trkpt lat="44.96001" lon="3.67171">
        <ele>883.76239</ele>
        <time>2011-10-22T13:15:56Z</time>
      </trkpt>
      <trkpt lat="44.95975" lon="3.67146">
        <ele>882.534668</ele>
        <time>2011-10-07T11:57:13Z</time>
      </trkpt>
      <trkpt lat="44.95933" lon="3.67109">
        <ele>883.761658</ele>
        <time>2011-09-13T02:28:06Z</time>
      </trkpt>
      <trkpt lat="44.95909" lon="3.67092">
        <ele>885.282166</ele>
        <time>2011-08-29T19:55:23Z</time>
      </trkpt>
      <trkpt lat="44.95862" lon="3.67047">
        <ele>886.17334</ele>
        <time>2011-08-03T10:38:55Z</time>
      </trkpt>
      <trkpt lat="44.95817" lon="3.67007">
        <ele>885.411255</ele>
        <time>2011-07-09T07:46:49Z</time>
      </trkpt>
      <trkpt lat="44.95781" lon="3.66995">
        <ele>887.195618</ele>
        <time>2011-06-21T08:45:57Z</time>
      </trkpt>
      <trkpt lat="44.95735" lon="3.66988">
        <ele>889.945313</ele>
        <time>2011-05-30T16:10:33Z</time>
      </trkpt>
      <trkpt lat="44.95671" lon="3.6698">
        <ele>890.340881</ele>
        <time>2011-04-29T21:50:16Z</time>
      </trkpt>
      <trkpt lat="44.95635" lon="3.66962">
        <ele>888.866028</ele>
        <time>2011-04-11T20:56:48Z</time>
      </trkpt>
      <trkpt lat="44.95615" lon="3.66939">
        <ele>889.742188</ele>
        <time>2011-04-11T20:56:48Z</time>
      </trkpt>
      <trkpt lat="44.95602" lon="3.66907">
        <ele>890.215393</ele>
        <time>2011-04-11T20:56:48Z</time>
      </trkpt>
      <trkpt lat="44.95586" lon="3.66884">
        <ele>889.905762</ele>
        <time>2011-04-11T20:56:48Z</time>
      </trkpt>
      <trkpt lat="44.95574" lon="3.66861">
        <ele>889.429382</ele>
        <time>2011-04-11T20:56:48Z</time>
      </trkpt>
      <trkpt lat="44.95566" lon="3.66831">
        <ele>888.000061</ele>
        <time>2011-04-11T20:56:48Z</time>
      </trkpt>
      <trkpt lat="44.95561" lon="3.66807">
        <ele>887.218567</ele>
        <time>2011-04-11T20:56:48Z</time>
      </trkpt>
      <trkpt lat="44.95536" lon="3.66765">
        <ele>884.195374</ele>
        <time>2011-04-11T20:56:48Z</time>
      </trkpt>
      <trkpt lat="44.95525" lon="3.66727">
        <ele>883.403198</ele>
        <time>2011-04-11T20:56:48Z</time>
      </trkpt>
      <trkpt lat="44.95481" lon="3.66679">
        <ele>883.252625</ele>
        <time>2011-04-11T20:56:48Z</time>
      </trkpt>
      <trkpt lat="44.95453" lon="3.66661">
        <ele>882.252014</ele>
        <time>2012-01-30T11:52:24Z</time>
      </trkpt>
      <trkpt lat="44.95429" lon="3.66627">
        <ele>881.192993</ele>
        <time>2011-04-11T20:56:48Z</time>
      </trkpt>
      <trkpt lat="44.95406" lon="3.6661">
        <ele>878.914917</ele>
        <time>2011-04-11T20:56:48Z</time>
      </trkpt>
      <trkpt lat="44.95356" lon="3.66557">
        <ele>876.305542</ele>
        <time>2011-04-11T20:56:48Z</time>
      </trkpt>
      <trkpt lat="44.95324" lon="3.66535">
        <ele>876.655029</ele>
        <time>2011-04-11T20:56:48Z</time>
      </trkpt>
      <trkpt lat="44.95301" lon="3.66524">
        <ele>876.619751</ele>
        <time>2011-04-11T20:56:48Z</time>
      </trkpt>
      <trkpt lat="44.95268" lon="3.66492">
        <ele>881.235413</ele>
        <time>2011-04-11T20:56:48Z</time>
      </trkpt>
      <trkpt lat="44.95236" lon="3.66473">
        <ele>886.170776</ele>
        <time>2011-04-11T20:56:48Z</time>
      </trkpt>
      <trkpt lat="44.95212" lon="3.66475">
        <ele>884.974731</ele>
        <time>2011-04-11T20:56:48Z</time>
      </trkpt>
      <trkpt lat="44.95184" lon="3.66478">
        <ele>885.363403</ele>
        <time>2011-04-11T20:56:48Z</time>
      </trkpt>
      <trkpt lat="44.95157" lon="3.66467">
        <ele>886.914429</ele>
        <time>2011-04-11T20:56:48Z</time>
      </trkpt>
      <trkpt lat="44.95138" lon="3.66451">
        <ele>889.040466</ele>
        <time>2011-04-11T20:56:48Z</time>
      </trkpt>
      <trkpt lat="44.95111" lon="3.66425">
        <ele>890.581177</ele>
        <time>2011-04-11T20:56:48Z</time>
      </trkpt>
      <trkpt lat="44.95088" lon="3.66382">
        <ele>894.679321</ele>
        <time>2011-04-11T20:56:48Z</time>
      </trkpt>
      <trkpt lat="44.95066" lon="3.66313">
        <ele>903.002502</ele>
        <time>2011-04-11T20:56:48Z</time>
      </trkpt>
      <trkpt lat="44.95053" lon="3.66277">
        <ele>908.179382</ele>
        <time>2011-04-11T20:56:48Z</time>
      </trkpt>
      <trkpt lat="44.95036" lon="3.66261">
        <ele>907.167969</ele>
        <time>2011-04-11T20:56:48Z</time>
      </trkpt>
      <trkpt lat="44.95019" lon="3.66258">
        <ele>902.608276</ele>
        <time>2011-04-11T20:56:48Z</time>
      </trkpt>
      <trkpt lat="44.94999" lon="3.66245">
        <ele>899.324402</ele>
        <time>2011-04-11T20:56:48Z</time>
      </trkpt>
      <trkpt lat="44.94983" lon="3.66206">
        <ele>901.562622</ele>
        <time>2011-04-11T20:56:48Z</time>
      </trkpt>
      <trkpt lat="44.94973" lon="3.66171">
        <ele>903.16571</ele>
        <time>2011-04-11T20:56:48Z</time>
      </trkpt>
      <trkpt lat="44.94976" lon="3.66124">
        <ele>911.422241</ele>
        <time>2011-04-11T20:56:48Z</time>
      </trkpt>
      <trkpt lat="44.94968" lon="3.66091">
        <ele>914.059509</ele>
        <time>2011-04-11T20:56:48Z</time>
      </trkpt>
      <trkpt lat="44.94923" lon="3.66033">
        <ele>912.900818</ele>
        <time>2011-04-11T20:56:48Z</time>
      </trkpt>
      <trkpt lat="44.9489" lon="3.65997">
        <ele>913.327393</ele>
        <time>2011-04-11T20:56:48Z</time>
      </trkpt>
      <trkpt lat="44.94861" lon="3.6596">
        <ele>918.291443</ele>
        <time>2011-04-11T20:56:48Z</time>
      </trkpt>
      <trkpt lat="44.94844" lon="3.65974">
        <ele>914.426025</ele>
        <time>2011-04-11T20:56:48Z</time>
      </trkpt>
      <trkpt lat="44.94819" lon="3.65991">
        <ele>909.500427</ele>
        <time>2011-04-11T20:56:48Z</time>
      </trkpt>
      <trkpt lat="44.94795" lon="3.66009">
        <ele>906.3172</ele>
        <time>2011-04-11T20:56:48Z</time>
      </trkpt>
      <trkpt lat="44.94768" lon="3.66036">
        <ele>902.151245</ele>
        <time>2011-04-11T20:56:48Z</time>
      </trkpt>
      <trkpt lat="44.94749" lon="3.66057">
        <ele>898.804993</ele>
        <time>2011-04-11T20:56:48Z</time>
      </trkpt>
      <trkpt lat="44.94735" lon="3.66075">
        <ele>895.951233</ele>
        <time>2011-04-11T20:56:48Z</time>
      </trkpt>
      <trkpt lat="44.94723" lon="3.66082">
        <ele>894.298767</ele>
        <time>2011-04-11T20:56:48Z</time>
      </trkpt>
      <trkpt lat="44.94713" lon="3.66084">
        <ele>893.544983</ele>
        <time>2011-04-11T20:56:48Z</time>
      </trkpt>
      <trkpt lat="44.94699" lon="3.66087">
        <ele>892.280823</ele>
        <time>2011-04-11T20:56:48Z</time>
      </trkpt>
      <trkpt lat="44.94677" lon="3.6608">
        <ele>891.891113</ele>
        <time>2011-04-11T20:56:48Z</time>
      </trkpt>
      <trkpt lat="44.94651" lon="3.66072">
        <ele>890.684631</ele>
        <time>2011-04-11T20:56:48Z</time>
      </trkpt>
      <trkpt lat="44.94639" lon="3.6607">
        <ele>890.117371</ele>
        <time>2011-04-11T20:56:48Z</time>
      </trkpt>
      <trkpt lat="44.9462" lon="3.66082">
        <ele>887.338257</ele>
        <time>2011-04-11T20:56:48Z</time>
      </trkpt>
      <trkpt lat="44.94587" lon="3.66113">
        <ele>882.612671</ele>
        <time>2011-04-11T20:56:48Z</time>
      </trkpt>
      <trkpt lat="44.94539" lon="3.66121">
        <ele>883.270203</ele>
        <time>2011-04-11T20:56:48Z</time>
      </trkpt>
      <trkpt lat="44.94513" lon="3.66126">
        <ele>880.954773</ele>
        <time>2011-04-11T20:56:48Z</time>
      </trkpt>
      <trkpt lat="44.9449" lon="3.66143">
        <ele>875.166992</ele>
        <time>2011-04-11T20:56:48Z</time>
      </trkpt>
      <trkpt lat="44.94477" lon="3.66172">
        <ele>866.929993</ele>
        <time>2011-04-11T20:56:48Z</time>
      </trkpt>
      <trkpt lat="44.94446" lon="3.66152">
        <ele>868.147705</ele>
        <time>2011-04-11T20:56:48Z</time>
      </trkpt>
      <trkpt lat="44.9443" lon="3.66148">
        <ele>868.247803</ele>
        <time>2011-04-11T20:56:48Z</time>
      </trkpt>
      <trkpt lat="44.94412" lon="3.66144">
        <ele>869.065979</ele>
        <time>2011-04-11T20:56:48Z</time>
      </trkpt>
      <trkpt lat="44.94393" lon="3.66142">
        <ele>872.084412</ele>
        <time>2011-04-11T20:56:48Z</time>
      </trkpt>
      <trkpt lat="44.94377" lon="3.66149">
        <ele>872.22876</ele>
        <time>2011-04-11T20:56:48Z</time>
      </trkpt>
      <trkpt lat="44.94355" lon="3.66176">
        <ele>869.55481</ele>
        <time>2011-04-11T20:56:48Z</time>
      </trkpt>
      <trkpt lat="44.94334" lon="3.6619">
        <ele>871.292114</ele>
        <time>2011-04-11T20:56:48Z</time>
      </trkpt>
      <trkpt lat="44.94318" lon="3.66202">
        <ele>872.675476</ele>
        <time>2011-04-11T20:56:48Z</time>
      </trkpt>
      <trkpt lat="44.94269" lon="3.66247">
        <ele>874.409973</ele>
        <time>2011-04-11T20:56:48Z</time>
      </trkpt>
      <trkpt lat="44.94253" lon="3.66262">
        <ele>873.58252</ele>
        <time>2011-04-11T20:56:48Z</time>
      </trkpt>
      <trkpt lat="44.94231" lon="3.66271">
        <ele>873.94751</ele>
        <time>2011-04-11T20:56:48Z</time>
      </trkpt>
      <trkpt lat="44.94177" lon="3.66282">
        <ele>873.262695</ele>
        <time>2011-04-11T20:56:48Z</time>
      </trkpt>
      <trkpt lat="44.94146" lon="3.66285">
        <ele>873.933289</ele>
        <time>2011-04-11T20:56:48Z</time>
      </trkpt>
      <trkpt lat="44.94081" lon="3.66317">
        <ele>868.16748</ele>
        <time>2011-04-11T20:56:48Z</time>
      </trkpt>
      <trkpt lat="44.9403" lon="3.66327">
        <ele>867.215271</ele>
        <time>2011-04-11T20:56:48Z</time>
      </trkpt>
      <trkpt lat="44.93994" lon="3.6636">
        <ele>861.474426</ele>
        <time>2011-04-11T20:56:48Z</time>
      </trkpt>
      <trkpt lat="44.93953" lon="3.66394">
        <ele>856.11499</ele>
        <time>2011-04-11T20:56:48Z</time>
      </trkpt>
      <trkpt lat="44.93912" lon="3.66411">
        <ele>851.84845</ele>
        <time>2011-04-11T20:56:48Z</time>
      </trkpt>
      <trkpt lat="44.93877" lon="3.66409">
        <ele>849.426208</ele>
        <time>2011-04-11T20:56:48Z</time>
      </trkpt>
      <trkpt lat="44.93849" lon="3.66408">
        <ele>845.36792</ele>
        <time>2011-04-11T20:56:48Z</time>
      </trkpt>
      <trkpt lat="44.93839" lon="3.66401">
        <ele>844.326721</ele>
        <time>2011-04-11T20:56:48Z</time>
      </trkpt>
      <trkpt lat="44.93838" lon="3.66392">
        <ele>844.949646</ele>
        <time>2011-04-11T20:56:48Z</time>
      </trkpt>
      <trkpt lat="44.93819" lon="3.66366">
        <ele>845.769104</ele>
        <time>2011-04-11T20:56:48Z</time>
      </trkpt>
      <trkpt lat="44.938" lon="3.66353">
        <ele>846.166626</ele>
        <time>2011-04-11T20:56:48Z</time>
      </trkpt>
      <trkpt lat="44.9376" lon="3.66352">
        <ele>843.93927</ele>
        <time>2011-04-11T20:56:48Z</time>
      </trkpt>
      <trkpt lat="44.93701" lon="3.6636">
        <ele>839.423767</ele>
        <time>2011-04-11T20:56:48Z</time>
      </trkpt>
      <trkpt lat="44.93638" lon="3.66378">
        <ele>828.748169</ele>
        <time>2011-04-11T20:56:48Z</time>
      </trkpt>
      <trkpt lat="44.93599" lon="3.66392">
        <ele>820.63092</ele>
        <time>2011-04-11T20:56:48Z</time>
      </trkpt>
      <trkpt lat="44.93526" lon="3.66426">
        <ele>801.726257</ele>
        <time>2011-04-11T20:56:48Z</time>
      </trkpt>
      <trkpt lat="44.93506" lon="3.66435">
        <ele>794.685059</ele>
        <time>2011-04-11T20:56:48Z</time>
      </trkpt>
      <trkpt lat="44.93493" lon="3.66433">
        <ele>791.12738</ele>
        <time>2011-04-11T20:56:48Z</time>
      </trkpt>
      <trkpt lat="44.93478" lon="3.66429">
        <ele>787.871033</ele>
        <time>2011-04-11T20:56:48Z</time>
      </trkpt>
      <trkpt lat="44.93458" lon="3.66417">
        <ele>786.815002</ele>
        <time>2011-04-11T20:56:48Z</time>
      </trkpt>
      <trkpt lat="44.93419" lon="3.66399">
        <ele>781.552612</ele>
        <time>2011-04-11T20:56:48Z</time>
      </trkpt>
      <trkpt lat="44.93373" lon="3.66368">
        <ele>780.267944</ele>
        <time>2011-04-11T20:56:48Z</time>
      </trkpt>
      <trkpt lat="44.93368" lon="3.66389">
        <ele>782.714905</ele>
        <time>2011-04-11T20:56:48Z</time>
      </trkpt>
      <trkpt lat="44.93373" lon="3.66419">
        <ele>784.966125</ele>
        <time>2011-04-11T20:56:48Z</time>
      </trkpt>
      <trkpt lat="44.93395" lon="3.66459">
        <ele>786.012024</ele>
        <time>2011-04-11T20:56:48Z</time>
      </trkpt>
      <trkpt lat="44.93396" lon="3.66478">
        <ele>790.218384</ele>
        <time>2011-04-11T20:56:48Z</time>
      </trkpt>
      <trkpt lat="44.93402" lon="3.66523">
        <ele>797.894592</ele>
        <time>2011-04-11T20:56:48Z</time>
      </trkpt>
      <trkpt lat="44.93407" lon="3.66554">
        <ele>803.516724</ele>
        <time>2011-04-11T20:56:48Z</time>
      </trkpt>
      <trkpt lat="44.93408" lon="3.66566">
        <ele>806.417664</ele>
        <time>2011-04-11T20:56:48Z</time>
      </trkpt>
      <trkpt lat="44.93434" lon="3.66607">
        <ele>806.786194</ele>
        <time>2011-04-11T20:56:48Z</time>
      </trkpt>
      <trkpt lat="44.93468" lon="3.66651">
        <ele>804.933167</ele>
        <time>2011-04-11T20:56:48Z</time>
      </trkpt>
      <trkpt lat="44.93483" lon="3.66695">
        <ele>807.306274</ele>
        <time>2011-04-11T20:56:48Z</time>
      </trkpt>
      <trkpt lat="44.93489" lon="3.66777">
        <ele>813.329651</ele>
        <time>2011-04-11T20:56:48Z</time>
      </trkpt>
      <trkpt lat="44.93498" lon="3.66792">
        <ele>811.859802</ele>
        <time>2011-04-11T20:56:48Z</time>
      </trkpt>
      <trkpt lat="44.93517" lon="3.66818">
        <ele>809.153748</ele>
        <time>2011-04-11T20:56:48Z</time>
      </trkpt>
      <trkpt lat="44.93525" lon="3.66845">
        <ele>808.703003</ele>
        <time>2011-04-11T20:56:48Z</time>
      </trkpt>
      <trkpt lat="44.93526" lon="3.66912">
        <ele>808.002136</ele>
        <time>2011-04-11T20:56:48Z</time>
      </trkpt>
      <trkpt lat="44.93525" lon="3.66946">
        <ele>804.967834</ele>
        <time>2011-04-11T20:56:48Z</time>
      </trkpt>
      <trkpt lat="44.93518" lon="3.66971">
        <ele>800.951233</ele>
        <time>2011-04-11T20:56:48Z</time>
      </trkpt>
      <trkpt lat="44.93503" lon="3.66992">
        <ele>800.403931</ele>
        <time>2011-04-11T20:56:48Z</time>
      </trkpt>
      <trkpt lat="44.93456" lon="3.6705">
        <ele>799.572693</ele>
        <time>2011-04-11T20:56:48Z</time>
      </trkpt>
      <trkpt lat="44.93439" lon="3.67075">
        <ele>795.91217</ele>
        <time>2011-04-11T20:56:48Z</time>
      </trkpt>
      <trkpt lat="44.93419" lon="3.67082">
        <ele>796.936157</ele>
        <time>2011-04-11T20:56:48Z</time>
      </trkpt>
      <trkpt lat="44.93396" lon="3.67083">
        <ele>800.999634</ele>
        <time>2011-04-11T20:56:48Z</time>
      </trkpt>
      <trkpt lat="44.93373" lon="3.67112">
        <ele>797.306946</ele>
        <time>2011-04-11T20:56:48Z</time>
      </trkpt>
      <trkpt lat="44.93352" lon="3.67144">
        <ele>794.099426</ele>
        <time>2011-04-11T20:56:48Z</time>
      </trkpt>
      <trkpt lat="44.93326" lon="3.67174">
        <ele>794.308289</ele>
        <time>2011-04-11T20:56:48Z</time>
      </trkpt>
      <trkpt lat="44.93306" lon="3.67206">
        <ele>794.300171</ele>
        <time>2011-04-11T20:56:48Z</time>
      </trkpt>
      <trkpt lat="44.93299" lon="3.67241">
        <ele>792.497742</ele>
        <time>2011-04-11T20:56:48Z</time>
      </trkpt>
      <trkpt lat="44.9329" lon="3.67274">
        <ele>793.042847</ele>
        <time>2011-04-11T20:56:48Z</time>
      </trkpt>
      <trkpt lat="44.9328" lon="3.67321">
        <ele>794.401611</ele>
        <time>2011-04-11T20:56:48Z</time>
      </trkpt>
      <trkpt lat="44.93268" lon="3.67368">
        <ele>798.181885</ele>
        <time>2011-04-11T20:56:48Z</time>
      </trkpt>
      <trkpt lat="44.93259" lon="3.67382">
        <ele>799.567871</ele>
        <time>2011-04-11T20:56:48Z</time>
      </trkpt>
      <trkpt lat="44.93213" lon="3.67374">
        <ele>802.520203</ele>
        <time>2011-04-11T20:56:48Z</time>
      </trkpt>
      <trkpt lat="44.93182" lon="3.6737">
        <ele>803.358643</ele>
        <time>2011-04-11T20:56:48Z</time>
      </trkpt>
      <trkpt lat="44.93118" lon="3.6733">
        <ele>803.955017</ele>
        <time>2011-04-11T20:56:48Z</time>
      </trkpt>
      <trkpt lat="44.93081" lon="3.67307">
        <ele>802.984985</ele>
        <time>2011-04-11T20:56:48Z</time>
      </trkpt>
      <trkpt lat="44.93068" lon="3.67299">
        <ele>802.335022</ele>
        <time>2011-04-11T20:56:48Z</time>
      </trkpt>
      <trkpt lat="44.92993" lon="3.6732">
        <ele>794.455017</ele>
        <time>2011-04-11T20:56:48Z</time>
      </trkpt>
      <trkpt lat="44.92951" lon="3.67329">
        <ele>791.936646</ele>
        <time>2011-04-11T20:56:48Z</time>
      </trkpt>
      <trkpt lat="44.9293" lon="3.67327">
        <ele>792.10553</ele>
        <time>2011-04-11T20:56:48Z</time>
      </trkpt>
      <trkpt lat="44.92912" lon="3.6734">
        <ele>791.849426</ele>
        <time>2011-04-11T20:56:48Z</time>
      </trkpt>
      <trkpt lat="44.92902" lon="3.67348">
        <ele>792.074036</ele>
        <time>2011-04-11T20:56:48Z</time>
      </trkpt>
      <trkpt lat="44.92892" lon="3.67369">
        <ele>791.773071</ele>
        <time>2011-04-11T20:56:48Z</time>
      </trkpt>
      <trkpt lat="44.92889" lon="3.6739">
        <ele>791.105957</ele>
        <time>2011-04-11T20:56:48Z</time>
      </trkpt>
      <trkpt lat="44.92886" lon="3.6742">
        <ele>790.053406</ele>
        <time>2011-04-11T20:56:48Z</time>
      </trkpt>
      <trkpt lat="44.92878" lon="3.67437">
        <ele>790.155029</ele>
        <time>2011-04-11T20:56:48Z</time>
      </trkpt>
      <trkpt lat="44.92868" lon="3.6745">
        <ele>790.76709</ele>
        <time>2011-04-11T20:56:48Z</time>
      </trkpt>
      <trkpt lat="44.92857" lon="3.67458">
        <ele>791.380615</ele>
        <time>2011-04-11T20:56:48Z</time>
      </trkpt>
      <trkpt lat="44.92839" lon="3.67463">
        <ele>792.580688</ele>
        <time>2011-04-11T20:56:48Z</time>
      </trkpt>
      <trkpt lat="44.92803" lon="3.67463">
        <ele>794.640015</ele>
        <time>2011-04-11T20:56:48Z</time>
      </trkpt>
      <trkpt lat="44.92777" lon="3.67456">
        <ele>795.943359</ele>
        <time>2011-04-11T20:56:48Z</time>
      </trkpt>
      <trkpt lat="44.92757" lon="3.67456">
        <ele>796.209351</ele>
        <time>2011-04-11T20:56:48Z</time>
      </trkpt>
      <trkpt lat="44.92715" lon="3.67456">
        <ele>795.809631</ele>
        <time>2011-04-11T20:56:48Z</time>
      </trkpt>
      <trkpt lat="44.92653" lon="3.67437">
        <ele>794.680481</ele>
        <time>2011-04-11T20:56:48Z</time>
      </trkpt>
      <trkpt lat="44.92626" lon="3.67421">
        <ele>793.75</ele>
        <time>2011-04-11T20:56:48Z</time>
      </trkpt>
      <trkpt lat="44.92593" lon="3.67389">
        <ele>792.01001</ele>
        <time>2011-04-11T20:56:48Z</time>
      </trkpt>
      <trkpt lat="44.92546" lon="3.67358">
        <ele>785.378723</ele>
        <time>2011-04-11T20:56:48Z</time>
      </trkpt>
      <trkpt lat="44.92514" lon="3.67329">
        <ele>782.921753</ele>
        <time>2011-04-11T20:56:48Z</time>
      </trkpt>
      <trkpt lat="44.92508" lon="3.67314">
        <ele>784.216064</ele>
        <time>2011-04-11T20:56:48Z</time>
      </trkpt>
      <trkpt lat="44.92494" lon="3.67291">
        <ele>785.23877</ele>
        <time>2011-04-11T20:56:48Z</time>
      </trkpt>
      <trkpt lat="44.92472" lon="3.67235">
        <ele>789.823303</ele>
        <time>2011-04-11T20:56:48Z</time>
      </trkpt>
      <trkpt lat="44.9243" lon="3.67199">
        <ele>791.950012</ele>
        <time>2011-04-11T20:56:48Z</time>
      </trkpt>
      <trkpt lat="44.92398" lon="3.67158">
        <ele>792.984192</ele>
        <time>2011-04-11T20:56:48Z</time>
      </trkpt>
      <trkpt lat="44.92379" lon="3.67133">
        <ele>790.33783</ele>
        <time>2011-04-11T20:56:48Z</time>
      </trkpt>
      <trkpt lat="44.92349" lon="3.67123">
        <ele>784.013428</ele>
        <time>2011-04-11T20:56:48Z</time>
      </trkpt>
      <trkpt lat="44.92324" lon="3.6712">
        <ele>778.311279</ele>
        <time>2011-04-11T20:56:48Z</time>
      </trkpt>
      <trkpt lat="44.92324" lon="3.67084">
        <ele>776.946472</ele>
        <time>2011-04-11T20:56:48Z</time>
      </trkpt>
      <trkpt lat="44.92324" lon="3.67065">
        <ele>776.349976</ele>
        <time>2011-04-11T20:56:48Z</time>
      </trkpt>
      <trkpt lat="44.92321" lon="3.67051">
        <ele>775.553223</ele>
        <time>2011-04-11T20:56:48Z</time>
      </trkpt>
      <trkpt lat="44.92298" lon="3.67059">
        <ele>772.457092</ele>
        <time>2011-04-11T20:56:48Z</time>
      </trkpt>
      <trkpt lat="44.92256" lon="3.67077">
        <ele>763.601074</ele>
        <time>2011-04-11T20:56:48Z</time>
      </trkpt>
      <trkpt lat="44.92227" lon="3.67096">
        <ele>751.877319</ele>
        <time>2011-04-11T20:56:48Z</time>
      </trkpt>
      <trkpt lat="44.92214" lon="3.67101">
        <ele>746.284363</ele>
        <time>2011-04-11T20:56:48Z</time>
      </trkpt>
      <trkpt lat="44.92204" lon="3.67124">
        <ele>739.402283</ele>
        <time>2011-04-11T20:56:48Z</time>
      </trkpt>
      <trkpt lat="44.92209" lon="3.67142">
        <ele>739.286499</ele>
        <time>2011-04-11T20:56:48Z</time>
      </trkpt>
      <trkpt lat="44.92217" lon="3.67176">
        <ele>738.293396</ele>
        <time>2011-04-11T20:56:48Z</time>
      </trkpt>
      <trkpt lat="44.92218" lon="3.67219">
        <ele>733.2052</ele>
        <time>2011-04-11T20:56:48Z</time>
      </trkpt>
      <trkpt lat="44.92219" lon="3.67254">
        <ele>726.532104</ele>
        <time>2011-04-11T20:56:48Z</time>
      </trkpt>
      <trkpt lat="44.92219" lon="3.67278">
        <ele>721.19812</ele>
        <time>2011-04-11T20:56:48Z</time>
      </trkpt>
      <trkpt lat="44.92222" lon="3.67292">
        <ele>719.681763</ele>
        <time>2011-04-11T20:56:48Z</time>
      </trkpt>
      <trkpt lat="44.92222" lon="3.673">
        <ele>717.519836</ele>
        <time>2011-04-11T20:56:48Z</time>
      </trkpt>
      <trkpt lat="44.92219" lon="3.67305">
        <ele>714.810425</ele>
        <time>2011-04-11T20:56:48Z</time>
      </trkpt>
      <trkpt lat="44.92214" lon="3.67308">
        <ele>711.34259</ele>
        <time>2011-04-11T20:56:48Z</time>
      </trkpt>
      <trkpt lat="44.92202" lon="3.67297">
        <ele>708.115967</ele>
        <time>2011-04-11T20:56:48Z</time>
      </trkpt>
      <trkpt lat="44.92181" lon="3.67276">
        <ele>701.803894</ele>
        <time>2011-04-11T20:56:48Z</time>
      </trkpt>
      <trkpt lat="44.92148" lon="3.67227">
        <ele>693.650024</ele>
        <time>2011-04-11T20:56:48Z</time>
      </trkpt>
      <trkpt lat="44.92142" lon="3.67231">
        <ele>689.862488</ele>
        <time>2011-04-11T20:56:48Z</time>
      </trkpt>
      <trkpt lat="44.92138" lon="3.67238">
        <ele>686.757507</ele>
        <time>2011-04-11T20:56:48Z</time>
      </trkpt>
      <trkpt lat="44.92139" lon="3.67261">
        <ele>683.772522</ele>
        <time>2011-04-11T20:56:48Z</time>
      </trkpt>
      <trkpt lat="44.92136" lon="3.67269">
        <ele>680.952515</ele>
        <time>2011-04-11T20:56:48Z</time>
      </trkpt>
      <trkpt lat="44.92127" lon="3.67253">
        <ele>679.315002</ele>
        <time>2011-04-11T20:56:48Z</time>
      </trkpt>
      <trkpt lat="44.92104" lon="3.67216">
        <ele>677.054321</ele>
        <time>2011-04-11T20:56:48Z</time>
      </trkpt>
      <trkpt lat="44.92087" lon="3.672">
        <ele>675.117493</ele>
        <time>2011-04-11T20:56:48Z</time>
      </trkpt>
      <trkpt lat="44.9207" lon="3.67191">
        <ele>671.152222</ele>
        <time>2011-04-11T20:56:48Z</time>
      </trkpt>
      <trkpt lat="44.9202" lon="3.67126">
        <ele>666.673218</ele>
        <time>2011-04-11T20:56:48Z</time>
      </trkpt>
      <trkpt lat="44.92002" lon="3.6711">
        <ele>665.403687</ele>
        <time>2011-04-11T20:56:48Z</time>
      </trkpt>
      <trkpt lat="44.91992" lon="3.67106">
        <ele>663.73938</ele>
        <time>2011-04-11T20:56:48Z</time>
      </trkpt>
      <trkpt lat="44.91977" lon="3.67099">
        <ele>661.240051</ele>
        <time>2011-04-11T20:56:48Z</time>
      </trkpt>
    </trkseg>
  </trk>
</gpx>